GFSGL_500_rhum_000.txt.gz
RH
44 45 55 84 83 51 37 32 27 10 2 5 4 3 5 4 8 18 38 91 100 100 100 100 100 100 100 100 100 100 95 85 70 59 57 61 72 83 96 100 100 99 90
58 63 72 93 81 84 47 23 13 0 3 17 8 7 16 40 85 100 100 100 100 100 100 100 100 100 100 100 100 94 88 86 78 63 61 58 60 69 74 95 100 97 100
81 73 72 70 86 92 56 14 3 3 14 35 11 49 99 100 100 100 100 100 100 100 100 100 100 100 100 100 98 92 84 76 63 50 42 40 39 34 44 64 90 99 92
43 54 75 84 100 96 78 19 4 11 42 32 90 100 100 100 99 90 95 99 99 99 97 94 93 95 84 63 47 33 20 13 11 10 9 10 12 13 12 14 17 21 80
69 89 99 100 100 88 30 6 9 34 92 100 100 100 100 100 98 98 99 100 100 100 99 91 76 55 34 18 10 11 13 13 13 13 12 12 13 12 11 11 11 10 10
100 100 100 76 44 23 6 11 53 100 100 100 100 100 100 100 100 100 100 100 96 84 68 42 31 19 13 13 14 13 8 6 11 16 16 14 11 9 9 11 11 11 11
98 48 59 60 31 5 15 58 100 100 100 100 100 100 100 100 100 98 92 81 68 46 27 21 14 14 14 12 8 13 19 24 25 28 34 42 40 31 22 11 10 10 11
79 53 91 87 8 21 74 99 97 99 100 100 100 98 95 93 88 84 70 47 27 18 15 13 14 14 10 11 19 25 28 32 43 42 40 46 57 58 43 29 29 21 14
96 49 51 14 50 100 98 98 100 98 98 98 97 91 72 51 40 29 23 17 14 14 14 15 15 10 16 27 32 47 72 92 95 95 91 87 87 88 71 48 29 27 30
55 30 20 60 87 80 82 86 88 90 67 32 22 22 22 23 21 20 18 18 17 17 16 15 11 15 27 39 66 93 99 96 91 100 100 97 93 76 75 84 61 48 40
22 25 62 80 77 80 83 75 37 25 25 24 21 17 14 14 15 15 16 17 17 16 16 14 21 31 40 79 85 63 77 96 99 100 100 95 76 56 47 52 87 80 46
28 76 84 88 88 77 35 26 24 18 15 14 14 16 18 18 14 11 11 13 15 15 17 52 58 50 89 59 44 37 45 56 74 84 78 83 90 84 88 97 88 100 100
75 88 94 91 49 29 25 18 15 14 17 20 24 28 33 34 32 24 17 18 14 32 97 100 78 99 43 54 46 54 57 60 66 79 81 82 40 45 71 100 100 100 100
89 95 82 39 29 21 16 15 19 23 27 30 33 35 32 29 28 32 29 31 100 100 100 94 100 69 48 53 53 48 52 59 61 65 67 47 58 84 80 74 68 98 100
95 79 41 26 20 16 18 21 29 37 40 40 51 69 73 43 18 15 54 100 100 100 100 100 100 79 68 58 56 55 65 48 44 46 61 91 90 92 98 100 98 94 96
80 38 26 21 18 19 21 35 52 61 77 89 100 95 98 62 48 76 100 100 100 100 100 100 100 100 95 73 51 57 58 51 47 37 32 35 56 77 89 83 83 67 94
42 28 24 20 21 24 30 38 46 99 100 94 97 100 90 70 86 100 100 100 100 100 100 100 100 100 100 68 58 63 60 54 50 42 34 32 31 27 35 30 10 12 33
34 28 25 22 23 29 36 45 81 98 100 100 100 100 81 95 100 100 100 100 100 100 100 100 100 100 100 82 69 62 66 62 59 53 42 40 43 46 28 16 14 13 59
35 32 28 23 24 30 38 86 95 99 100 100 100 94 94 98 100 100 100 100 100 100 100 100 100 100 100 100 100 89 79 70 64 59 54 53 55 55 54 53 23 17 24
40 36 34 24 24 30 64 86 94 100 100 100 99 100 100 98 98 100 100 100 100 100 100 100 100 100 100 100 100 100 90 80 70 65 58 59 65 63 59 61 63 44 25
48 43 42 29 24 37 65 76 89 100 100 100 100 100 100 98 97 100 100 100 100 100 100 100 100 100 100 100 100 100 93 90 82 74 68 65 55 58 73 68 69 73 80
60 54 52 40 26 36 60 69 80 95 96 100 100 100 100 100 98 98 100 100 100 100 100 100 100 100 100 100 100 96 94 91 91 81 70 65 23 2 2 15 53 73 78
50 65 64 57 33 32 52 62 72 86 95 100 100 100 100 100 100 100 99 100 100 100 100 100 100 100 100 100 100 100 98 98 97 94 94 83 71 41 28 28 28 24 36
50 65 73 73 52 32 38 54 62 80 91 96 100 100 100 100 100 100 100 100 100 100 100 100 100 100 100 100 100 100 100 100 99 98 91 86 82 72 51 32 34 34 34
60 62 82 81 79 50 35 35 45 60 79 90 98 100 100 100 100 100 100 100 100 100 100 100 100 100 100 100 100 100 100 100 95 91 90 90 92 87 77 50 37 39 39
63 69 87 85 87 84 59 42 36 38 53 75 88 95 100 100 100 100 100 100 100 100 100 100 100 100 100 100 100 100 100 100 99 93 92 96 98 98 91 76 52 43 43

GFSGL_500_rhum_003.txt.gz
RH
63 72 73 80 91 100 65 39 71 65 73 32 16 14 9 6 20 39 97 100 100 100 100 100 100 100 100 100 100 99 78 87 99 97 100 70 64 62 60 65 69 73 63
56 59 66 72 92 87 63 62 84 88 51 16 22 5 9 42 74 100 100 100 100 100 100 100 100 100 97 97 95 92 92 93 82 69 66 66 64 68 66 66 70 78 83
40 41 56 69 78 85 73 87 66 50 56 16 8 24 74 100 100 100 100 100 100 100 100 100 100 100 100 100 100 99 94 89 84 76 72 71 62 59 58 58 58 60 70
51 51 64 80 84 97 89 76 72 65 28 15 49 80 97 100 100 100 100 98 98 100 100 100 100 100 100 100 99 96 91 84 76 68 60 51 41 36 35 39 44 43 38
64 99 100 94 100 90 87 57 36 22 36 73 93 100 100 96 98 100 100 100 100 100 100 100 100 100 99 88 78 61 46 33 23 11 6 8 10 10 10 10 11 14 18
100 100 100 93 87 82 54 25 27 64 83 88 94 98 98 97 95 96 98 98 100 100 100 100 97 80 65 50 35 25 11 6 10 14 14 12 8 7 7 7 8 10 10
86 100 93 62 33 25 21 47 79 81 81 83 84 84 84 82 77 72 69 68 70 74 75 72 61 36 23 18 12 10 12 15 13 9 13 21 25 26 27 27 21 13 8
100 87 35 31 25 24 60 83 76 80 76 65 46 31 27 26 28 29 31 33 33 32 29 24 20 15 13 12 15 17 13 14 18 23 27 29 33 39 41 41 46 42 34
92 51 29 22 32 74 78 76 72 58 34 23 22 22 21 20 19 19 20 22 23 23 23 21 17 15 15 16 19 15 28 49 62 75 82 82 86 84 84 75 70 64 58
31 27 26 32 66 86 80 68 42 27 21 18 16 14 14 15 15 14 13 12 13 14 15 18 19 18 19 20 19 37 68 92 72 69 84 88 85 94 100 100 97 82 76
28 28 40 91 98 90 61 34 21 19 16 16 17 21 26 28 29 26 24 21 15 11 12 14 18 20 20 21 39 51 25 26 36 52 59 70 76 83 97 98 84 66 55
27 46 98 100 88 53 27 22 19 18 19 25 37 44 45 44 37 31 27 27 25 18 21 18 16 14 34 49 65 29 39 42 46 51 52 53 55 53 54 89 86 84 79
27 96 100 86 53 26 24 21 20 22 29 38 53 73 82 82 78 56 26 28 34 27 40 68 62 73 71 92 42 48 61 62 63 67 68 77 69 76 76 51 65 91 100
87 97 88 60 31 27 24 21 23 31 40 55 91 100 99 96 82 51 19 20 35 100 100 100 100 100 100 54 58 67 65 56 46 42 40 56 80 62 73 100 100 100 100
99 93 68 39 32 28 23 23 29 53 79 84 89 87 90 100 94 60 43 87 100 100 100 100 100 100 85 71 84 73 68 56 43 31 22 16 17 54 98 100 100 100 100
100 75 51 37 34 30 22 27 56 90 84 88 96 98 100 85 74 90 100 100 100 100 100 100 100 100 100 98 87 78 73 64 50 35 30 30 29 19 14 26 36 50 75
80 58 46 39 38 32 23 34 73 90 99 89 96 100 91 82 96 100 100 100 100 100 100 100 100 100 100 98 95 87 78 66 60 45 41 38 35 38 30 10 13 10 5
60 53 48 44 44 37 24 44 63 74 96 100 100 100 94 99 98 100 100 100 100 100 100 100 100 100 100 100 100 95 83 72 65 59 52 49 46 43 42 36 14 14 27
50 54 53 51 49 45 27 38 57 71 93 100 100 92 96 100 94 100 100 100 100 100 100 100 100 100 100 100 100 100 93 82 75 67 58 55 48 47 52 52 50 41 14
33 49 56 58 57 54 34 33 51 71 92 100 100 99 98 95 90 96 100 100 100 100 100 100 100 100 100 100 100 100 96 93 88 79 69 60 42 23 12 30 57 64 68
24 51 65 64 64 60 46 29 42 64 90 100 100 100 100 100 89 92 98 100 100 100 100 100 100 100 100 100 100 100 98 94 94 89 77 70 61 33 32 21 17 40 74
32 59 71 68 72 66 63 36 30 48 76 98 99 100 100 100 100 97 96 99 100 99 99 100 100 98 98 99 100 100 99 98 100 100 95 86 75 61 56 40 26 31 33
38 76 76 73 80 72 73 58 36 32 50 80 100 99 100 100 100 100 100 100 100 100 100 100 100 100 100 100 100 100 100 99 97 98 95 94 89 76 68 57 39 32 36
65 87 79 81 86 82 75 76 62 44 34 46 78 100 100 100 100 100 100 100 100 100 100 100 100 100 100 100 100 100 100 100 100 96 93 93 96 91 84 73 60 44 39
91 89 82 86 86 81 75 75 79 75 58 40 40 73 99 100 100 100 100 100 100 100 100 100 100 100 100 100 100 100 100 100 100 100 99 91 92 98 98 93 81 68 55
93 88 82 79 79 78 73 72 75 82 82 74 53 41 65 96 100 100 100 100 100 100 100 100 100 100 100 100 100 100 100 100 100 100 100 96 92 93 100 100 97 89 69

GFSGL_500_rhum_006.txt.gz
RH
39 41 43 45 44 43 34 23 32 62 63 60 51 48 43 24 26 19 56 98 100 100 100 100 100 100 100 97 96 97 100 100 98 100 100 100 100 95 79 72 88 78 75
47 49 46 43 39 22 19 44 99 72 70 31 23 19 23 27 44 67 100 100 100 100 100 100 95 97 99 100 100 99 97 90 85 80 85 75 73 68 62 74 73 67 69
57 58 41 32 48 48 50 82 83 60 44 24 20 23 45 71 96 100 100 100 100 100 100 100 97 97 93 96 96 97 94 87 83 81 82 88 82 76 74 65 63 62 58
95 85 27 13 11 22 66 80 43 43 24 23 38 73 81 84 90 97 100 100 100 100 100 100 100 97 97 98 97 98 100 100 98 93 86 82 84 84 80 73 70 68 63
99 74 12 12 22 28 25 28 25 22 28 68 83 82 85 83 76 81 86 89 94 96 95 99 100 100 100 98 94 97 95 88 84 84 81 78 70 62 60 56 58 55 53
85 13 16 26 30 26 25 22 24 31 85 91 84 78 60 42 34 26 23 23 25 39 65 79 81 79 84 84 78 69 67 53 45 34 22 11 8 8 8 9 9 9 12
14 23 32 35 27 18 21 25 41 89 95 84 60 38 24 19 18 18 17 17 17 20 22 24 30 45 55 57 56 57 46 25 15 10 11 15 15 12 12 10 11 10 8
33 43 34 26 18 22 24 64 100 95 71 43 26 22 20 17 16 15 14 14 13 13 14 15 19 22 22 23 25 21 15 12 14 17 16 15 19 22 22 22 22 24 27
39 37 27 19 24 25 82 100 90 57 30 25 22 18 16 17 18 20 21 21 20 19 16 13 12 16 18 18 17 16 15 18 18 22 34 49 66 77 83 75 71 56 35
42 30 22 27 22 77 100 78 51 29 27 22 18 20 26 30 37 38 36 32 29 28 26 22 12 11 14 18 18 18 19 22 43 65 43 60 70 81 88 82 90 82 82
30 27 28 24 66 100 81 51 32 29 23 20 25 39 48 60 77 76 76 72 50 30 27 26 16 10 12 17 20 20 31 55 33 36 37 41 57 78 91 93 100 100 100
29 31 28 39 99 90 57 37 32 28 21 25 52 76 80 83 74 68 65 71 75 30 29 26 18 18 17 18 21 40 40 37 44 47 56 64 73 76 66 62 75 90 97
31 29 30 96 98 64 44 36 35 27 22 46 68 81 90 94 96 100 91 52 22 30 34 49 94 82 44 57 82 62 34 45 63 63 57 53 69 80 75 57 78 70 88
30 32 93 100 65 50 40 40 37 28 28 56 74 86 97 100 100 94 74 33 26 95 100 100 100 100 100 100 87 40 60 63 45 30 20 16 12 16 47 75 66 84 100
38 95 100 68 54 49 44 42 40 27 35 55 78 91 94 100 98 79 80 100 100 100 100 100 100 100 100 100 67 74 68 56 35 31 29 28 27 26 14 11 30 83 100
100 100 70 55 54 51 49 46 43 27 38 55 83 99 100 98 93 100 100 100 100 100 100 100 100 100 100 99 89 84 74 57 40 40 40 39 36 32 30 22 10 11 13
100 74 48 47 55 55 54 51 47 28 41 67 88 100 100 96 100 100 100 100 100 100 100 100 100 100 100 100 100 96 81 69 57 51 50 49 48 43 41 35 29 12 14
88 39 30 38 64 62 60 57 52 29 44 71 94 100 100 92 94 100 100 100 100 100 100 100 100 100 100 100 100 100 97 83 72 63 56 51 40 29 28 33 37 36 20
69 37 28 51 69 67 65 64 60 35 36 68 95 98 100 96 90 98 100 100 100 100 100 100 100 100 100 100 100 100 100 99 88 77 67 56 42 27 27 19 17 32 39
62 38 31 62 75 71 71 69 67 51 29 55 84 100 100 98 87 92 96 100 100 100 100 100 100 100 100 100 100 100 100 100 96 92 84 71 60 45 41 32 21 21 25
52 40 31 76 80 76 74 73 68 65 40 32 67 93 100 99 96 86 92 96 100 100 100 100 100 100 100 100 100 100 100 100 100 100 97 83 72 62 57 49 32 24 27
66 49 62 85 80 76 72 71 69 68 63 40 36 74 95 100 100 98 93 94 98 97 98 100 100 100 100 100 98 98 99 100 100 100 100 98 89 81 71 62 50 36 32
84 68 84 88 79 69 64 70 69 64 66 66 44 36 80 96 98 100 100 100 100 100 100 100 98 98 100 100 100 100 100 100 100 100 100 100 98 94 86 80 68 53 44
98 94 97 87 72 57 56 67 70 62 62 66 69 53 36 77 98 99 100 100 100 100 100 100 100 100 100 100 100 100 100 100 100 100 99 97 91 92 94 94 93 81 66
100 100 98 83 66 59 54 65 68 62 56 57 64 71 62 38 67 100 100 100 100 100 100 100 100 100 100 100 100 100 100 100 100 100 100 100 100 95 91 92 96 98 93
100 100 93 80 71 64 58 63 70 64 57 54 56 68 75 68 47 54 98 100 100 100 100 100 100 100 100 100 100 100 100 100 100 100 100 100 100 100 94 90 94 97 98

GFSGL_500_rhum_009.txt.gz
RH
48 49 49 46 49 52 58 74 97 94 20 20 16 18 21 24 23 26 31 62 84 89 88 86 88 99 100 99 100 100 100 100 85 82 100 100 100 100 100 94 75 100 99
47 49 54 54 58 77 100 90 51 19 17 15 18 18 21 27 34 77 89 81 89 94 97 100 100 100 100 100 95 88 87 80 88 64 70 94 98 99 100 100 91 90 94
50 53 71 100 100 79 22 19 20 18 20 15 16 22 28 50 92 97 90 89 87 88 88 89 94 100 100 100 100 100 99 100 98 88 82 72 75 85 86 86 89 87 79
56 54 53 46 30 23 19 18 21 19 14 17 22 44 81 96 98 84 57 43 36 37 42 50 64 83 96 99 100 99 100 100 100 99 93 89 82 76 70 67 64 61 61
48 41 30 22 20 23 27 27 22 15 19 24 52 85 89 74 55 33 24 22 21 20 19 19 20 22 32 70 88 95 100 100 100 100 100 100 100 100 99 98 82 75 73
35 24 19 22 32 34 31 25 16 21 23 78 86 78 53 30 23 23 20 18 16 16 16 16 16 16 17 20 32 65 73 85 94 92 85 78 62 57 72 77 83 85 73
19 17 24 36 39 36 27 20 23 26 77 91 70 40 30 25 21 17 18 20 19 20 20 17 14 14 13 15 18 23 39 54 57 56 55 43 24 16 17 16 13 14 18
23 28 34 44 37 28 24 24 25 60 89 68 38 31 28 20 20 32 38 38 41 50 40 32 26 19 16 12 14 16 19 25 29 31 27 16 13 14 15 15 14 14 13
38 42 46 30 26 27 28 28 50 94 74 40 34 32 23 28 50 57 61 65 77 76 79 54 35 29 23 16 12 14 16 19 19 17 15 16 18 20 26 33 35 34 26
36 23 25 26 28 28 31 50 100 81 47 37 37 30 26 54 66 68 67 60 77 84 58 85 50 28 25 19 12 12 17 18 17 17 19 39 61 64 73 65 74 68 78
30 26 30 28 41 38 66 100 82 52 41 39 38 25 38 63 73 78 85 91 90 74 54 73 40 25 25 17 11 14 18 19 18 34 48 37 43 49 54 63 81 93 96
30 27 34 71 43 87 100 81 54 46 44 42 37 25 48 75 84 88 96 96 69 34 27 28 34 32 25 18 16 18 19 21 45 42 47 46 58 68 72 80 89 82 77
17 20 43 47 93 100 76 55 51 49 47 44 28 31 66 86 89 89 89 80 57 39 69 97 100 100 100 84 59 37 50 46 43 48 55 61 47 34 42 61 72 72 68
20 24 42 100 100 63 52 55 54 53 48 44 25 49 82 90 88 90 94 100 100 100 100 100 100 100 100 100 100 86 44 50 56 50 26 24 25 22 19 14 12 22 66
33 71 96 98 58 37 56 60 61 57 50 43 27 68 86 89 94 94 100 100 100 100 100 100 100 100 100 100 100 71 61 63 32 31 33 33 30 28 25 23 15 10 10
86 89 94 58 31 46 66 65 61 58 55 41 30 75 96 90 84 91 99 100 100 100 100 100 100 100 100 100 95 79 66 39 39 44 46 43 39 37 34 30 26 22 12
86 93 84 47 37 55 71 70 64 52 50 46 30 69 96 96 78 87 100 100 100 100 100 100 100 100 100 100 100 96 85 56 46 53 54 49 40 32 30 27 18 17 25
82 91 80 60 43 55 74 71 64 58 58 52 31 51 96 100 75 85 100 100 100 100 100 100 100 100 100 100 100 100 100 98 78 66 62 51 33 32 36 30 18 15 17
76 85 78 58 44 70 77 72 59 54 58 56 44 32 73 99 84 80 93 100 100 100 100 100 100 100 100 100 100 100 100 100 99 84 73 58 46 41 43 40 30 20 19
79 88 86 67 57 78 79 67 51 51 55 52 54 37 38 86 94 80 83 94 100 100 100 100 100 100 100 100 100 100 100 100 100 100 94 79 66 55 57 52 40 26 25
83 81 92 72 74 86 82 60 49 49 56 50 51 52 36 44 88 95 83 83 92 100 100 100 100 100 100 100 100 100 100 100 100 100 100 92 77 66 67 62 54 39 33
96 86 95 90 92 90 81 60 50 49 56 49 45 48 53 37 45 85 97 92 86 91 95 99 100 100 100 100 100 100 100 100 100 100 100 100 100 94 86 77 71 59 50
100 98 100 99 98 94 77 61 54 52 56 51 47 44 47 52 41 41 82 95 98 95 93 93 95 98 100 100 100 100 100 100 100 100 100 100 100 100 100 93 88 86 77
100 100 100 100 100 91 76 64 57 57 60 59 51 46 43 50 55 51 39 77 94 99 100 100 98 98 99 100 100 100 100 100 100 100 100 100 100 100 100 95 91 90 93
100 100 100 100 98 92 80 69 63 63 62 68 61 57 48 47 53 58 59 45 72 95 98 100 100 100 100 99 100 100 100 100 100 100 100 100 100 100 100 100 96 89 86
100 100 100 100 98 95 83 73 70 67 67 68 75 68 58 55 53 54 58 64 50 70 99 100 99 100 100 100 100 100 100 100 100 100 99 100 100 100 100 100 100 98 91

GFSGL_500_rhum_012.txt.gz
RH
25 28 36 43 45 45 43 39 34 25 19 16 14 16 15 13 12 15 19 32 42 67 93 100 100 100 97 95 100 100 100 95 90 100 100 100 93 91 100 100 100 100 98
33 37 49 50 46 41 33 24 17 14 19 23 22 17 13 16 20 39 71 91 99 88 84 80 73 72 84 96 100 98 97 100 94 81 66 84 100 100 99 96 100 100 91
43 53 53 46 38 25 17 11 20 25 27 23 20 16 20 25 72 84 81 62 45 36 30 27 27 26 26 28 47 73 94 100 90 81 83 78 70 84 77 61 65 83 97
57 47 44 33 12 8 14 18 24 25 25 19 19 22 28 70 78 68 43 29 25 23 21 20 19 20 20 20 20 20 30 61 97 88 86 88 89 86 78 71 81 76 73
49 40 22 7 7 9 18 17 20 20 20 21 22 27 74 82 65 38 29 28 22 19 20 22 21 18 16 16 18 19 19 21 46 89 97 98 99 100 98 89 79 79 75
34 12 11 17 24 17 21 20 22 25 23 22 32 100 87 54 38 31 31 23 28 45 52 52 39 30 27 22 16 15 17 17 20 47 79 92 100 100 100 100 98 100 100
8 8 14 28 95 27 100 53 44 21 28 52 100 82 54 40 35 33 25 28 48 60 64 57 54 58 58 42 27 17 14 15 16 19 54 65 83 92 88 82 78 70 72
10 10 15 25 42 43 100 100 32 33 89 100 65 50 43 41 39 29 26 52 64 76 76 69 62 67 62 59 37 23 16 13 14 16 25 47 52 49 47 38 31 24 21
11 11 15 61 35 72 100 100 33 92 97 62 53 48 46 43 31 27 52 76 76 86 98 100 96 85 54 66 47 27 19 13 12 14 15 22 30 28 21 15 14 14 14
10 11 16 18 98 100 96 32 82 84 59 55 54 52 49 36 30 58 88 88 89 92 100 96 70 35 69 83 36 25 20 13 12 15 15 17 18 18 22 35 49 49 50
12 14 14 18 100 100 46 94 71 54 57 55 56 51 44 30 62 87 84 78 78 76 51 32 26 32 35 28 26 24 16 12 14 17 17 19 34 52 51 52 55 60 70
14 14 13 16 23 47 84 55 44 62 61 57 51 48 31 50 89 83 87 98 99 99 100 97 99 96 92 82 44 20 14 15 18 19 36 47 45 47 52 60 64 68 74
15 15 26 51 80 85 56 40 66 66 59 52 46 44 32 72 94 91 93 96 99 100 100 100 100 100 100 100 97 50 22 20 39 54 46 50 57 62 48 35 32 40 59
21 42 67 77 85 67 42 50 67 67 60 50 44 39 34 79 97 87 93 96 100 100 100 100 100 100 100 100 100 100 97 74 55 51 52 38 20 22 22 19 15 12 10
51 66 70 82 85 69 52 51 71 65 57 48 43 40 33 82 95 75 93 100 100 100 100 100 100 100 100 100 100 96 73 66 52 33 30 31 32 30 26 24 19 17 14
67 73 68 76 87 72 59 62 71 67 51 46 45 48 34 76 95 76 85 100 100 100 100 100 100 100 100 100 99 63 44 38 41 46 44 41 39 36 32 28 22 16 14
77 74 68 77 85 74 62 69 76 62 46 42 42 39 38 54 99 78 85 100 100 99 100 100 100 100 100 100 100 100 66 45 49 57 54 48 35 33 34 28 22 17 17
93 79 75 76 83 83 72 75 77 58 48 39 37 33 40 36 83 87 78 97 100 100 100 100 100 100 100 100 100 100 100 100 83 69 67 50 29 33 38 39 31 23 20
85 95 86 83 81 89 83 85 81 61 49 41 42 32 32 40 40 92 88 82 98 100 100 100 100 100 100 100 100 100 100 100 100 99 87 63 36 30 42 47 40 29 25
56 82 88 89 94 93 94 93 80 62 50 43 46 35 34 36 41 41 87 87 80 95 100 100 100 100 100 100 100 100 100 100 100 100 100 97 63 42 48 56 51 42 32
70 88 94 95 100 100 97 97 77 65 52 46 48 46 38 34 36 41 36 78 93 77 88 99 100 100 100 100 100 100 100 100 100 100 100 100 89 63 63 66 64 59 51
90 90 91 95 99 100 98 94 82 69 56 50 49 54 47 42 37 38 43 38 64 94 87 81 92 98 100 100 100 100 100 100 100 100 100 100 100 100 98 94 89 79 75
90 92 94 97 99 99 98 92 84 71 59 53 52 55 61 55 46 40 40 46 42 49 87 96 89 87 93 99 100 100 100 100 100 100 100 100 100 100 100 100 100 100 95
89 88 93 97 98 98 97 93 87 72 59 56 56 55 69 70 58 50 45 45 47 49 45 81 98 98 94 92 95 99 100 100 100 100 100 100 100 100 100 100 100 98 93
89 93 90 84 94 100 98 92 84 72 63 58 58 58 66 74 69 58 52 47 48 54 57 50 77 98 100 100 99 100 100 100 100 100 100 100 100 100 100 100 99 96 97
91 89 83 80 90 99 99 95 85 76 66 63 60 60 66 75 74 64 55 52 50 56 64 64 55 81 98 100 100 100 100 100 100 100 100 100 100 100 100 100 99 98 98

GFSGL_500_rhum_015.txt.gz
RH
30 35 38 36 36 38 40 29 15 8 10 11 21 16 17 18 18 20 20 22 46 82 82 75 67 61 62 68 80 87 80 82 83 78 84 89 100 100 100 99 65 100 100
31 37 36 33 32 34 20 10 11 14 12 33 44 23 23 18 20 22 25 62 91 77 59 40 30 28 26 26 27 29 31 43 53 69 84 97 89 98 100 96 100 99 100
33 32 34 36 33 16 10 10 10 11 28 80 62 68 61 18 25 37 89 84 66 45 34 30 29 26 22 21 21 21 23 23 26 36 58 85 91 89 88 89 78 92 100
32 35 36 30 14 10 11 14 14 78 88 100 50 99 52 44 72 95 74 54 41 36 34 31 24 25 32 33 27 22 18 18 21 21 26 45 86 98 93 89 69 74 94
37 34 28 15 11 10 9 12 80 100 100 94 89 100 70 85 77 58 46 43 40 37 30 23 32 53 60 55 40 31 28 22 17 18 20 21 33 94 100 99 80 64 64
36 27 13 11 9 8 10 16 69 80 100 80 100 88 87 61 49 46 43 42 37 24 24 45 63 71 72 63 50 45 44 40 23 16 17 18 20 57 96 98 91 79 67
28 12 11 9 8 10 14 47 82 100 81 100 84 80 53 50 46 44 38 31 29 53 69 69 71 77 79 81 74 58 60 55 42 19 15 17 18 26 81 98 95 87 80
14 11 8 7 9 12 14 96 100 79 90 100 67 53 56 49 43 40 30 53 77 86 83 77 77 80 88 100 99 91 89 60 47 20 14 15 16 18 60 79 93 87 86
11 8 7 10 12 12 16 95 78 95 90 52 58 63 49 44 42 31 56 89 85 95 91 80 64 62 70 70 58 47 47 70 38 19 14 14 15 16 39 58 63 58 53
8 7 10 14 15 16 21 52 70 83 51 62 65 54 43 43 35 40 88 79 79 90 100 100 100 93 42 33 57 70 69 43 27 17 13 13 14 15 26 43 41 35 24
7 12 16 17 28 58 70 77 52 50 65 64 56 45 40 36 32 67 78 72 74 97 100 100 100 100 100 99 59 33 28 25 22 14 12 13 15 16 19 20 22 28 37
12 15 20 34 60 71 76 72 47 55 66 60 49 40 38 37 35 82 69 75 81 96 100 100 100 100 100 100 100 99 27 18 14 13 15 18 19 29 43 50 54 57 60
15 18 26 63 67 72 78 77 65 64 70 59 45 38 35 35 38 93 72 82 90 100 100 100 100 100 100 100 100 71 26 16 18 19 37 49 48 52 59 61 58 53 48
17 24 44 70 74 62 78 84 66 66 73 60 46 38 33 30 36 92 81 89 97 100 100 100 100 100 100 100 100 100 85 85 80 68 62 62 60 51 30 16 15 14 13
20 29 56 75 72 62 76 84 74 71 76 58 46 37 33 30 33 75 68 84 98 100 100 99 100 100 100 100 95 98 99 93 78 64 45 30 25 27 26 22 19 16 15
23 33 58 82 78 69 74 84 81 80 78 61 48 38 36 30 35 65 84 74 88 97 100 100 99 100 100 100 100 74 61 56 47 40 39 39 39 34 26 23 18 17 16
29 37 45 77 90 81 78 89 86 89 80 61 48 40 38 31 33 37 81 74 84 91 100 100 100 100 100 100 100 100 80 61 62 53 51 50 40 33 28 24 22 18 19
34 44 41 51 72 86 84 94 95 89 80 61 49 40 41 34 31 32 41 81 75 89 97 100 100 100 100 100 100 100 100 100 66 70 64 54 29 30 34 34 30 25 24
38 50 46 56 83 92 90 91 93 92 78 60 49 42 41 41 35 31 33 43 86 80 88 99 100 100 100 100 100 100 100 100 100 100 92 83 42 23 32 40 40 35 31
38 41 57 86 93 89 84 91 97 93 82 64 53 44 42 47 46 40 34 36 38 78 79 80 95 100 100 100 100 100 100 100 100 100 100 100 96 76 45 48 53 48 42
39 54 79 85 88 88 86 95 96 92 80 67 55 47 43 44 54 52 44 38 36 37 65 86 74 89 96 100 100 100 100 100 100 100 100 100 100 91 76 66 70 73 64
39 53 73 83 84 84 88 91 93 91 82 69 57 50 45 45 56 65 57 48 41 37 37 49 88 83 78 89 98 100 100 100 100 100 100 100 100 100 98 96 96 96 96
49 50 60 81 87 80 78 88 94 91 80 70 58 51 47 47 56 68 67 57 48 41 39 40 44 79 96 87 84 88 96 100 100 100 100 100 100 100 100 100 100 100 100
48 48 74 92 84 72 75 92 96 92 82 74 64 56 49 49 54 65 68 61 49 46 44 44 49 47 72 100 100 98 95 95 96 99 100 100 100 100 100 100 100 100 100
70 78 93 93 84 83 85 92 93 88 85 82 75 62 54 51 52 61 66 65 56 49 49 50 53 61 55 67 100 100 100 100 100 100 100 100 100 100 100 100 100 100 100
82 86 86 85 82 81 87 90 95 94 98 92 80 73 66 62 56 58 68 70 66 59 54 53 57 62 69 64 64 96 100 100 100 100 100 100 100 100 100 100 100 100 100

GFSGL_500_rhum_018.txt.gz
RH
44 40 38 36 37 39 38 36 28 22 16 10 8 14 32 96 99 94 100 86 33 49 60 75 95 93 82 67 52 43 37 36 41 49 59 80 96 100 100 96 100 71 54
37 39 40 42 41 40 38 32 22 14 9 7 10 42 46 100 100 100 92 71 87 95 86 75 65 56 45 38 33 30 28 28 26 24 26 37 52 93 100 100 99 82 100
49 46 45 44 43 42 32 20 12 9 7 13 24 42 100 99 100 85 51 74 67 53 48 44 41 39 38 37 35 30 25 22 21 21 22 23 25 33 78 100 100 82 100
43 44 46 45 45 37 22 14 8 7 11 14 22 78 100 88 68 63 70 57 49 46 45 44 40 33 28 24 22 21 23 32 36 33 25 20 20 22 26 76 100 87 76
38 42 44 46 38 23 14 9 7 10 13 16 70 100 86 44 63 62 50 45 46 44 37 28 34 47 56 60 60 58 55 54 51 44 35 28 19 18 22 24 79 96 79
47 51 49 40 25 14 9 8 10 13 14 29 100 96 74 64 52 48 42 42 38 28 39 62 54 44 43 51 71 84 75 70 66 51 46 38 26 19 18 21 29 86 92
54 51 40 24 15 11 8 10 14 14 25 49 95 92 58 52 47 42 38 27 26 55 62 53 57 69 82 65 56 92 96 97 90 76 53 53 38 21 16 19 21 50 85
54 42 24 15 12 9 10 15 23 36 44 72 90 57 59 48 43 37 32 28 58 69 61 68 86 97 100 96 58 45 96 100 100 93 71 68 40 24 16 18 19 28 81
45 30 17 13 9 10 14 30 63 71 61 55 53 64 54 46 39 35 27 38 70 70 80 100 97 96 100 100 100 43 41 54 72 73 65 56 37 18 16 17 18 26 76
39 21 14 10 10 13 22 55 71 78 62 60 67 61 54 45 37 29 23 58 63 70 91 100 100 100 100 100 100 100 46 85 87 57 50 38 22 15 15 16 16 28 72
21 15 11 11 13 17 40 60 63 73 75 69 69 65 51 42 36 27 25 57 60 75 90 100 100 100 100 100 100 100 97 33 30 33 27 20 14 14 15 15 16 34 54
16 13 11 14 15 24 58 68 62 73 79 69 74 66 51 41 36 28 27 59 63 74 94 96 100 100 100 100 100 100 88 35 26 22 17 14 13 14 14 15 18 22 27
15 11 12 14 19 33 70 73 66 76 81 78 78 68 51 39 37 28 26 64 64 82 95 93 100 100 100 100 100 100 93 37 19 16 16 17 17 18 23 35 47 51 50
12 12 12 14 26 43 76 80 70 72 79 81 81 68 50 38 36 29 29 65 70 83 95 96 99 100 100 100 100 100 100 100 80 70 71 68 58 57 63 68 71 59 46
13 14 12 16 32 46 84 96 86 77 87 87 82 64 48 39 37 32 26 37 70 82 91 86 93 100 100 100 100 93 97 100 100 94 88 86 83 65 36 20 17 15 14
16 16 14 24 38 42 53 78 92 89 91 92 78 63 48 40 38 37 30 28 68 69 81 88 86 95 100 100 100 99 80 66 59 54 47 38 32 28 26 24 20 18 17
18 18 20 31 46 47 58 91 100 95 93 93 80 65 50 42 39 41 37 28 32 74 72 85 91 94 100 100 100 100 100 74 77 61 52 46 39 32 26 22 20 19 19
21 19 28 39 45 52 79 100 100 100 100 96 83 66 52 43 39 41 43 37 28 32 72 75 89 92 96 100 100 100 100 100 93 76 65 59 43 37 29 24 22 21 22
28 27 38 40 60 87 94 98 99 99 98 92 84 66 52 43 38 38 45 47 41 30 32 70 76 89 92 96 100 100 100 100 100 100 99 83 44 20 26 33 35 34 31
36 35 43 44 62 84 90 93 96 98 94 91 82 66 53 44 39 38 41 53 53 44 34 30 58 76 84 92 98 100 100 100 100 100 100 100 100 91 67 41 43 51 50
45 42 51 52 58 69 87 95 94 92 95 92 82 70 58 47 41 40 44 55 62 58 45 35 30 38 80 79 87 93 99 100 100 100 100 100 100 100 99 82 65 66 72
55 50 52 60 55 75 96 80 74 86 96 93 86 74 65 51 44 42 45 54 62 61 48 40 36 32 32 67 86 83 89 97 99 100 100 100 100 100 100 97 88 89 96
63 62 65 62 67 96 96 84 79 85 97 96 89 82 72 58 49 44 44 49 57 58 55 45 40 37 37 40 52 91 93 86 90 97 98 99 100 100 100 100 100 100 100
66 72 75 82 84 91 96 88 91 89 95 96 98 96 83 70 59 51 47 47 53 60 59 55 47 44 42 45 50 53 90 100 100 97 97 99 98 99 100 100 100 100 100
65 74 76 78 83 88 95 98 93 90 96 100 100 100 96 82 74 64 57 51 51 56 62 62 59 51 47 48 53 58 57 85 100 100 100 100 100 99 99 100 99 100 100
78 70 75 79 84 90 97 100 98 95 96 100 100 100 100 97 89 78 69 64 61 57 59 66 66 64 54 52 54 61 66 65 79 100 100 100 100 100 100 100 100 100 100

GFSGL_500_rhum_021.txt.gz
RH
47 45 42 34 30 24 19 23 26 33 38 37 24 16 10 9 14 25 37 57 100 100 97 58 63 57 50 48 48 53 59 60 67 60 51 40 42 43 51 94 97 90 77
53 46 38 33 25 20 27 30 34 43 41 26 18 10 10 16 18 27 61 100 97 72 52 47 44 42 39 39 40 40 41 41 40 36 36 34 32 29 26 33 62 91 98
48 42 36 28 24 27 29 45 48 44 29 19 11 9 13 17 48 88 98 68 54 49 47 41 35 31 26 27 30 33 33 30 28 29 30 31 30 28 27 24 26 37 78
43 36 30 26 25 36 47 48 47 32 20 12 8 12 15 42 98 92 58 53 49 43 39 32 22 24 42 55 50 48 48 50 60 58 36 24 22 23 21 20 21 24 33
39 33 30 30 40 55 55 51 27 19 14 9 12 19 27 47 54 54 55 46 40 36 30 22 32 54 46 60 74 81 77 63 49 49 73 65 48 45 41 31 20 20 24
37 35 38 43 58 62 56 35 21 16 10 14 27 39 52 48 56 60 52 42 37 29 19 37 48 49 78 94 100 100 100 91 60 53 84 88 75 64 54 41 26 19 19
42 45 47 54 61 61 42 22 15 10 13 28 45 55 56 58 64 58 44 39 34 22 32 48 53 79 97 98 100 100 100 100 68 41 97 100 87 80 50 43 36 20 18
51 51 56 63 64 48 26 17 11 12 21 48 54 65 62 66 64 53 43 35 30 27 52 54 80 93 99 98 98 100 100 100 74 35 74 99 99 92 59 49 45 22 18
60 63 67 67 53 38 22 12 12 15 36 55 58 78 75 69 64 52 40 34 24 43 58 72 86 99 100 100 100 100 100 100 84 57 49 98 100 93 65 60 42 19 17
68 71 66 57 49 26 14 12 14 22 50 58 57 74 75 73 64 49 36 32 24 48 63 83 95 100 100 100 100 100 100 100 90 49 81 37 63 72 64 49 23 16 18
76 68 58 46 28 16 13 12 17 31 57 62 68 76 72 76 62 46 35 32 24 54 64 84 99 100 100 100 100 100 100 96 52 31 43 62 53 46 35 21 16 17 18
70 58 44 28 19 13 14 12 24 46 73 76 72 70 78 74 61 45 35 33 25 44 64 80 98 99 100 100 100 100 100 73 28 26 25 25 23 19 16 15 16 16 16
56 42 31 20 14 16 14 19 34 60 93 97 88 82 81 74 62 44 36 36 30 31 59 78 90 90 99 100 100 100 100 94 36 21 17 16 15 15 14 15 16 16 18
40 31 21 16 17 19 17 33 40 49 65 94 97 92 87 76 59 44 38 39 37 27 59 75 89 93 86 95 100 100 100 100 100 79 54 41 35 33 36 31 34 32 30
33 23 18 18 22 22 28 43 50 50 71 96 99 96 90 74 55 45 38 38 40 30 37 70 86 89 88 88 100 100 94 76 98 100 100 100 100 98 97 86 81 78 73
23 20 19 22 25 26 38 44 49 68 95 100 100 99 84 70 54 44 37 36 42 38 27 53 79 90 97 97 99 100 100 99 68 60 65 63 51 37 28 23 19 17 16
20 21 23 30 31 34 41 51 88 98 94 99 99 97 82 70 54 43 36 35 41 46 40 28 64 84 93 99 100 100 100 100 100 77 65 57 47 37 33 29 27 24 23
20 24 32 38 39 41 44 65 93 100 98 96 98 93 87 70 54 44 37 36 38 46 50 40 27 55 79 93 100 100 100 100 100 100 82 71 59 48 38 32 26 22 22
25 32 42 44 46 51 52 57 83 94 100 100 100 95 90 71 56 46 39 37 40 47 55 54 43 28 41 77 94 100 100 100 100 100 100 97 65 36 42 37 30 27 25
31 42 52 53 56 58 63 68 69 98 100 98 98 98 91 76 63 50 42 37 37 42 51 58 54 37 31 30 69 89 100 100 100 100 100 100 100 98 62 28 28 35 44
42 53 61 60 66 64 71 70 95 99 79 81 96 100 94 82 71 59 48 42 38 39 45 52 54 48 37 33 28 55 84 94 100 100 100 100 100 100 100 100 83 55 52
56 62 68 69 78 78 76 90 100 98 92 87 93 99 97 90 83 70 60 50 44 40 40 45 52 52 46 37 33 31 39 78 89 100 100 100 100 100 100 100 100 88 75
65 72 80 73 81 83 89 92 99 100 96 97 97 100 99 98 96 86 74 65 52 46 42 41 46 51 52 48 39 36 38 37 64 90 99 100 100 100 100 100 100 100 100
74 86 90 74 75 82 85 87 88 92 99 100 99 99 100 100 100 96 91 77 66 54 46 44 44 49 53 53 50 43 40 44 47 52 90 100 100 100 100 100 100 100 100
94 94 93 93 94 86 79 81 83 91 100 100 100 100 100 100 100 100 100 92 80 66 58 53 52 49 51 54 54 52 45 43 48 55 57 84 99 100 100 100 100 100 100
99 100 97 91 89 93 97 99 100 99 100 100 100 100 100 100 100 100 100 100 99 87 71 63 61 63 55 54 56 56 54 48 49 58 64 66 89 100 100 100 100 100 100

GFSGL_500_rhum_024.txt.gz
RH
66 67 62 54 47 46 41 35 32 34 34 41 43 47 48 48 29 9 10 15 24 60 75 59 49 41 40 37 35 32 28 26 20 18 24 36 42 55 58 58 53 54 55
74 71 60 55 52 46 39 36 39 41 47 49 53 49 48 23 9 13 20 22 42 60 53 47 39 36 33 27 20 20 29 40 38 31 32 29 26 36 40 44 42 42 38
74 67 61 56 51 48 46 48 44 48 51 54 50 46 22 10 14 28 35 48 52 55 51 39 35 32 24 21 37 38 44 55 65 65 55 45 33 40 31 35 41 39 34
72 70 65 59 57 55 53 47 52 52 54 49 39 21 11 13 30 42 47 50 57 55 43 35 32 25 23 36 45 59 77 88 97 100 100 84 72 50 36 40 28 33 34
81 72 66 61 60 51 45 52 58 60 50 36 22 12 11 25 41 49 54 60 60 54 41 32 27 24 38 49 71 78 80 84 86 92 99 95 91 70 44 50 49 26 23
77 71 67 67 48 48 51 59 64 54 38 23 13 11 19 43 54 62 67 67 67 49 34 31 22 40 49 74 87 98 100 100 98 98 98 100 96 58 54 70 72 50 28
76 76 61 54 56 60 64 67 54 37 23 13 12 16 41 55 58 69 72 74 60 43 34 27 30 46 62 81 90 100 100 100 100 100 100 100 72 64 96 98 87 67 56
82 66 62 62 65 70 70 52 34 24 14 14 14 33 58 57 64 71 73 69 55 40 34 25 37 55 77 81 100 100 100 100 100 100 100 96 58 91 100 100 93 70 52
71 66 68 64 69 68 50 33 23 15 14 13 22 50 60 66 73 68 73 69 48 37 33 25 43 64 84 91 100 100 100 100 98 100 100 72 80 97 100 100 93 63 48
75 75 72 71 66 50 33 22 16 15 16 16 34 66 79 86 77 78 75 59 44 36 34 29 50 66 85 88 100 100 100 100 64 46 38 66 79 77 99 100 86 69 55
79 75 73 66 49 30 21 16 16 19 16 26 38 68 90 92 87 86 71 54 41 34 34 29 53 68 81 92 100 100 100 100 68 26 28 35 67 49 52 72 71 64 52
82 76 62 44 27 19 16 16 19 22 24 39 43 49 64 82 89 85 67 49 39 33 34 29 45 63 83 88 100 100 100 100 100 38 22 25 27 30 32 32 28 23 20
79 57 38 24 16 14 16 19 24 26 36 47 48 53 74 87 87 82 63 47 37 33 35 34 32 58 80 93 99 100 100 99 100 98 51 25 19 18 19 18 18 17 17
51 35 22 12 13 15 20 24 30 34 42 47 51 77 90 87 90 78 61 45 37 34 37 40 29 53 77 92 95 100 100 100 90 100 100 100 75 44 32 23 21 18 18
33 19 12 14 17 18 23 35 38 40 44 63 85 89 92 91 92 80 57 43 37 34 37 45 40 30 60 77 89 100 100 100 96 69 100 100 100 100 100 100 99 86 70
17 12 16 19 18 22 30 43 47 45 54 75 86 89 90 94 94 76 54 43 37 35 36 46 51 36 39 74 86 96 100 100 100 91 59 49 53 52 52 55 60 65 69
12 15 18 21 23 31 43 50 53 54 50 62 80 86 91 98 95 75 57 46 38 35 37 43 53 52 35 38 76 94 100 100 100 100 90 71 62 47 38 29 24 21 19
17 18 22 24 32 45 54 57 56 64 61 58 75 86 89 99 98 80 64 50 41 36 34 39 46 52 47 34 34 70 93 100 100 100 100 99 79 67 53 43 37 33 30
21 23 25 30 48 53 57 63 62 66 68 71 91 76 80 99 99 86 73 60 48 40 36 34 37 44 47 46 36 32 68 94 100 100 100 100 100 66 66 52 40 33 29
24 29 28 43 55 58 62 67 69 70 74 95 90 83 82 94 98 90 86 75 62 49 40 37 35 36 42 45 44 35 30 57 93 100 100 100 100 100 82 42 46 42 38
27 32 34 52 59 66 65 70 79 85 89 93 92 91 93 91 97 100 98 91 79 64 52 42 36 35 36 40 41 42 36 30 39 84 100 100 100 100 100 100 95 52 46
36 35 47 56 64 75 68 70 84 88 91 94 99 100 100 99 98 100 100 100 94 80 65 54 46 37 36 38 41 39 40 37 33 33 68 98 100 100 100 100 100 100 91
44 42 57 68 76 84 87 85 82 86 92 94 97 99 100 100 100 100 100 100 100 97 84 69 56 49 44 39 40 43 41 41 38 35 35 50 91 100 100 100 100 100 100
51 52 64 79 87 88 87 89 93 99 100 100 99 99 100 100 100 100 100 100 100 100 100 96 84 67 57 50 44 43 44 42 42 41 37 37 42 78 100 100 100 100 100
56 64 69 86 93 94 94 93 89 85 85 95 100 100 100 100 100 100 100 100 100 100 99 100 99 84 73 66 59 50 46 46 44 43 43 39 40 47 60 99 100 100 100
60 68 83 87 93 93 90 86 84 86 91 95 98 100 100 100 100 100 100 100 100 100 100 100 100 100 98 89 81 70 58 50 49 46 45 44 44 50 57 62 97 100 100

GFSGL_500_rhum_027.txt.gz
RH
39 42 54 67 78 77 73 64 54 50 45 41 43 42 44 49 50 35 16 10 12 29 37 39 41 41 41 35 30 29 25 22 20 22 25 24 24 23 24 21 28 41 66
46 51 60 73 77 74 65 60 57 47 48 50 46 52 53 49 29 14 12 12 31 45 50 45 45 45 41 30 30 23 27 37 39 46 58 58 58 54 38 30 30 32 43
52 54 64 71 72 66 64 65 58 58 54 53 55 52 46 25 12 12 12 28 45 54 56 52 52 47 35 30 23 29 40 53 62 61 66 74 72 71 68 59 48 37 37
54 59 69 69 69 72 74 69 66 57 57 56 50 41 22 11 12 13 26 46 52 61 66 64 54 42 30 27 26 41 56 66 80 87 90 90 92 88 81 82 80 70 43
58 76 76 78 82 82 77 70 55 58 56 48 35 19 10 12 13 19 49 56 60 74 69 62 50 33 30 26 38 52 66 82 93 98 98 100 100 98 98 99 93 94 71
79 82 87 90 90 86 70 58 60 56 46 33 16 10 12 14 15 42 61 65 75 68 68 58 39 31 29 32 48 72 80 92 98 99 100 100 100 100 100 100 97 82 64
96 98 98 97 86 71 66 66 60 46 31 14 10 11 15 15 34 60 69 74 78 77 63 44 36 32 28 35 54 78 80 100 100 100 99 94 94 100 97 89 61 44 53
100 100 95 80 76 77 72 64 47 32 13 10 12 16 17 25 54 75 88 88 84 74 54 37 34 33 27 42 62 73 89 100 100 98 52 49 70 88 75 55 78 97 100
100 93 87 78 83 77 70 52 35 13 11 12 14 20 21 35 59 82 87 86 86 68 46 37 31 33 28 47 61 69 98 100 100 79 26 31 44 83 78 82 100 100 100
100 100 99 91 77 77 57 44 14 11 14 14 18 22 30 43 52 57 81 92 80 58 44 34 30 32 30 48 64 85 99 100 100 90 22 26 40 64 61 99 100 100 100
100 100 100 82 80 66 50 18 11 14 15 16 22 26 40 51 57 83 90 84 66 49 37 31 30 34 30 49 64 84 100 100 99 100 40 21 27 40 54 85 100 100 82
100 100 97 84 68 55 22 11 14 17 17 22 29 35 44 57 87 96 90 79 58 42 35 30 30 37 30 49 69 86 100 100 95 100 99 38 20 24 30 48 61 71 74
100 100 92 70 63 32 11 15 17 19 21 31 36 41 62 90 92 94 90 73 52 40 34 31 30 38 36 35 66 87 100 100 100 85 100 100 64 23 20 23 25 26 25
100 92 70 66 40 11 15 17 19 22 30 40 43 54 78 87 91 95 89 71 51 41 35 32 32 36 46 32 50 76 92 100 100 95 85 100 100 100 84 42 23 19 19
95 76 68 53 16 12 18 18 22 30 43 48 50 51 67 83 88 93 89 71 53 41 35 31 33 37 47 45 30 59 83 97 100 100 86 59 96 100 100 100 99 72 44
79 72 60 25 11 17 18 23 32 40 50 52 57 58 63 86 88 93 90 73 57 45 38 35 32 37 47 50 35 34 70 88 100 100 100 82 50 40 41 67 99 100 100
72 64 29 11 16 18 23 30 41 47 53 54 59 63 71 88 79 91 92 80 67 56 46 38 34 32 36 43 45 34 34 76 92 100 100 100 85 62 42 34 32 28 28
68 32 12 14 21 22 28 40 46 54 57 56 61 59 89 79 77 88 94 89 80 71 61 50 39 32 31 35 40 42 37 32 74 94 100 100 100 91 71 59 48 35 28
25 14 14 22 23 29 36 46 52 58 59 61 68 76 91 86 85 88 97 98 93 89 77 65 52 40 32 30 35 39 39 35 31 64 92 100 100 100 95 76 59 49 42
16 17 21 27 27 36 46 54 64 62 62 64 74 83 86 87 95 100 100 100 98 95 92 81 64 50 42 34 31 34 36 35 34 30 56 89 97 100 100 87 77 62 45
18 21 30 29 35 42 56 65 74 79 69 70 76 79 83 88 92 98 100 100 100 99 99 94 83 70 59 46 36 32 32 34 34 34 30 42 88 96 100 100 100 65 60
23 28 33 31 43 50 67 77 82 83 85 88 90 86 84 91 96 100 100 100 100 100 100 100 97 94 81 66 54 44 34 33 33 33 34 31 32 78 96 100 100 100 94
26 33 34 33 52 58 70 86 88 90 93 91 86 84 86 96 100 100 100 100 100 100 100 100 100 97 98 83 71 60 50 38 34 34 33 33 33 32 55 96 100 100 100
28 35 35 33 54 69 72 77 84 87 86 86 87 87 91 92 94 98 100 100 100 100 100 100 100 98 91 95 95 81 68 58 45 38 36 35 34 34 34 39 86 100 100
40 37 34 30 54 70 80 83 83 86 94 97 98 100 100 100 99 98 100 100 100 100 100 100 100 100 100 100 100 92 82 74 68 54 43 38 36 35 36 36 37 64 100
40 37 29 28 52 70 75 77 89 94 96 92 90 88 88 93 100 100 100 100 100 100 100 100 100 100 100 100 100 98 91 82 82 76 60 46 41 40 40 40 39 43 50

GFSGL_500_rhum_030.txt.gz
RH
33 35 37 41 48 56 54 66 71 68 65 70 74 72 55 45 45 45 37 20 8 10 13 20 45 55 56 55 44 39 32 27 25 22 24 28 35 38 41 39 34 28 21
41 39 41 47 59 59 62 72 68 72 78 77 63 55 48 44 48 34 15 7 10 13 18 44 53 57 55 43 44 35 28 28 23 29 46 50 57 65 65 60 57 51 50
48 44 46 53 60 56 78 78 85 85 73 61 58 52 46 50 32 12 8 10 13 17 44 56 58 59 51 54 40 31 30 26 35 46 53 68 75 82 84 84 78 71 67
53 50 51 56 55 75 89 94 87 75 70 65 56 50 52 34 12 8 10 14 15 42 56 59 62 59 56 45 34 31 28 35 46 56 67 82 89 96 95 91 85 85 76
57 54 56 53 76 95 97 89 82 82 79 64 51 52 38 12 9 10 14 17 36 58 61 69 64 63 54 37 31 31 29 43 57 62 80 91 100 95 87 76 76 88 89
57 56 54 92 98 100 96 92 88 85 91 67 52 46 13 10 12 14 18 23 57 72 77 72 73 60 39 33 30 29 36 50 62 69 90 97 89 35 40 56 84 98 99
60 73 97 96 100 99 92 97 95 98 74 53 50 16 11 13 14 19 25 46 76 77 67 74 68 44 34 29 32 30 46 59 68 86 95 98 33 24 32 62 94 94 97
89 94 100 99 100 98 100 100 99 96 61 52 28 13 14 14 19 25 37 51 55 61 79 70 47 36 30 29 32 32 53 72 88 92 93 89 21 25 49 73 86 76 58
90 100 100 100 98 100 100 100 96 66 55 41 14 14 15 17 27 34 46 50 72 89 78 54 39 33 28 32 32 36 59 76 93 93 94 88 21 25 52 49 67 93 100
100 100 99 96 100 100 100 79 65 56 53 16 14 15 18 26 33 38 45 73 94 86 63 44 37 32 28 33 32 36 61 79 95 100 90 98 29 24 46 68 92 100 100
100 100 100 100 100 100 93 62 60 58 23 12 14 17 23 36 37 47 74 85 83 74 54 42 36 31 30 34 34 33 59 83 100 100 81 100 74 23 30 56 86 100 100
100 100 100 100 100 100 96 64 62 38 12 13 16 23 32 42 46 70 78 82 81 67 51 39 33 31 32 35 38 31 56 85 100 100 87 95 100 69 25 30 55 75 84
100 100 100 100 100 98 86 61 38 13 12 16 20 29 40 46 47 67 78 82 80 65 48 37 33 29 30 34 42 35 44 82 98 100 100 68 100 100 98 49 27 30 44
100 100 100 99 98 90 61 43 16 11 16 19 28 35 45 50 53 60 84 84 80 66 51 40 34 31 28 31 41 41 32 69 95 100 100 96 55 100 100 100 97 52 32
100 100 100 98 91 66 55 24 10 16 19 25 34 40 49 54 60 68 89 81 82 72 57 48 44 36 29 27 32 42 35 37 80 98 100 100 89 49 70 100 100 100 92
100 100 99 88 71 57 29 11 15 21 22 34 40 48 52 57 58 84 83 83 88 78 67 59 54 48 36 28 28 35 41 35 42 88 100 100 100 89 54 49 67 100 100
100 98 87 73 47 22 12 15 23 23 30 38 46 55 56 58 71 86 79 84 91 86 80 74 65 58 46 35 27 28 35 39 34 45 92 100 100 100 87 60 46 45 66
96 88 58 31 16 14 18 24 27 29 39 46 56 61 64 70 86 89 86 89 91 93 89 87 79 70 58 44 35 27 28 32 35 33 44 91 100 100 100 90 70 47 46
64 31 19 14 18 22 24 31 31 37 49 59 63 61 68 79 84 90 93 95 97 93 95 96 89 84 73 63 50 38 29 27 31 32 32 37 83 100 100 100 93 76 70
20 15 17 19 22 25 30 34 38 47 64 73 77 80 75 76 78 84 91 95 96 96 98 99 96 92 88 78 65 50 41 32 28 29 30 31 31 71 97 100 100 95 74
17 22 24 25 26 30 36 37 46 57 75 83 82 82 84 88 91 93 93 95 99 100 100 99 97 95 92 89 79 62 54 46 38 29 28 29 29 29 61 90 100 100 93
27 26 29 28 32 41 42 39 49 64 74 88 92 90 86 83 81 85 91 99 100 100 100 100 99 99 94 92 84 80 78 67 49 42 32 29 29 28 28 47 88 100 100
32 34 33 32 39 41 41 39 48 75 78 84 88 88 85 87 92 98 100 100 100 100 100 100 98 99 100 99 94 88 83 77 64 50 43 35 30 29 28 29 34 81 99
35 39 37 38 42 41 40 35 42 76 88 95 96 94 96 96 97 100 100 100 100 100 100 100 100 100 100 100 99 98 95 94 86 68 55 47 39 31 31 29 30 30 60
29 33 39 42 41 41 40 32 41 72 90 96 97 99 100 98 99 97 92 92 99 100 100 100 100 100 99 100 99 96 100 99 97 84 72 63 54 42 34 33 31 31 32
39 38 42 42 41 43 41 34 44 73 89 94 94 100 100 100 98 100 94 89 88 93 100 100 100 100 100 100 100 96 99 98 98 93 82 79 69 62 45 37 36 34 35

GFSGL_500_rhum_033.txt.gz
RH
26 28 35 47 55 58 57 52 51 51 56 85 89 89 84 74 72 75 60 34 24 20 12 9 10 14 22 48 56 54 53 45 39 26 27 25 22 23 30 38 40 42 43
25 26 28 45 61 60 57 53 52 62 88 90 93 82 75 76 81 63 34 26 21 11 9 11 15 23 52 59 62 55 50 50 30 26 27 24 28 40 47 56 66 69 66
30 32 34 38 49 57 57 54 74 92 85 86 85 78 90 85 51 29 24 24 13 10 12 16 21 52 62 66 59 56 54 34 31 27 26 29 41 50 58 73 80 80 80
36 40 42 48 59 60 62 88 94 86 87 90 86 98 86 47 31 26 22 15 10 12 16 20 41 64 71 57 54 55 35 29 28 28 30 39 48 56 78 80 66 33 21
42 43 48 61 65 73 93 94 87 94 97 88 98 97 76 57 31 22 13 11 12 15 23 34 55 59 46 56 58 39 30 26 29 27 42 48 56 80 81 65 16 17 22
44 52 66 74 87 91 83 82 100 95 89 94 100 97 74 36 22 14 12 13 15 21 33 42 46 39 55 54 37 32 26 26 28 34 53 65 79 81 77 20 17 30 36
60 67 74 92 92 90 100 100 100 100 100 100 100 90 63 33 16 12 12 15 23 30 41 43 52 67 57 41 33 28 26 30 29 46 68 82 78 80 56 18 25 37 50
69 73 97 96 100 100 100 100 100 100 100 100 91 78 44 24 12 12 14 22 31 36 42 64 72 62 43 36 31 29 31 32 35 62 73 84 78 88 42 19 35 46 53
57 89 97 97 100 100 100 100 100 100 100 96 81 58 30 16 13 15 20 32 38 55 73 70 72 51 37 33 30 30 35 33 41 64 85 89 79 95 45 21 47 70 91
80 89 100 100 100 100 100 100 100 100 98 91 66 36 20 12 14 20 29 38 50 77 75 70 59 43 34 30 28 30 38 34 42 74 91 93 79 99 64 21 50 80 92
85 100 100 100 100 100 100 100 100 98 91 70 40 28 16 13 19 30 40 44 50 68 74 76 54 38 34 30 27 29 35 35 39 72 95 98 75 96 98 28 30 72 96
100 100 100 100 100 100 100 100 100 92 92 71 28 12 12 18 26 36 43 48 49 64 82 74 54 42 35 30 26 26 33 38 32 72 99 100 93 66 100 94 32 34 64
100 100 100 100 100 100 100 100 98 90 45 19 13 11 17 22 32 43 48 50 58 74 85 75 58 47 44 36 27 26 32 41 33 58 98 100 100 72 65 100 100 62 36
100 100 100 100 100 100 100 96 88 46 19 15 12 17 22 30 39 44 48 58 60 85 86 83 66 56 54 45 33 25 27 35 38 36 84 100 100 100 61 57 100 100 100
100 100 100 100 100 100 98 82 33 14 13 14 19 24 28 42 46 51 49 53 76 81 84 86 73 70 63 55 40 30 24 28 35 35 45 98 100 100 98 56 58 98 100
100 100 100 100 100 90 53 23 16 16 18 21 27 29 37 48 52 59 60 63 85 78 80 86 84 81 75 66 54 38 28 24 29 34 34 56 100 100 100 93 56 62 97
100 100 100 96 69 28 17 15 14 19 21 26 32 36 48 58 61 67 71 86 92 88 88 90 92 90 87 77 68 56 40 29 24 29 33 32 61 100 100 100 90 56 62
100 92 50 16 13 15 15 20 23 25 24 32 35 46 57 69 71 70 78 87 94 93 94 98 95 94 94 90 81 71 56 40 30 25 27 29 31 60 100 100 100 94 74
40 17 11 13 13 17 24 26 29 29 33 39 41 52 71 78 85 86 85 88 89 92 95 100 100 100 99 95 90 85 71 53 43 34 26 26 28 30 47 96 100 100 98
11 10 11 15 23 29 32 32 31 33 41 43 45 66 75 88 94 91 89 92 98 100 99 100 100 100 100 99 92 90 84 74 61 50 38 28 25 26 28 36 89 100 100
12 17 21 24 31 32 29 33 36 39 44 44 47 70 85 95 100 98 91 86 86 88 97 100 100 100 100 100 99 91 87 77 69 62 52 40 34 25 25 27 28 77 100
18 24 27 29 34 39 35 31 40 42 43 44 46 72 88 97 100 99 97 98 98 100 100 97 100 100 100 100 100 100 99 92 90 80 66 57 44 36 28 24 25 26 58
29 34 38 38 40 42 43 40 44 44 44 44 42 74 96 100 100 100 100 100 100 99 100 100 100 100 100 100 100 100 98 93 92 82 78 68 54 46 37 31 25 24 26
30 34 38 39 42 46 47 47 49 45 44 43 41 75 100 100 100 100 100 100 100 100 98 99 100 100 100 100 100 100 100 99 91 91 86 82 68 55 51 40 35 26 25
25 26 27 27 27 30 36 44 46 43 45 45 46 79 100 100 100 100 100 100 100 100 100 97 97 100 100 100 100 100 100 99 97 90 92 87 80 65 61 53 45 40 29
28 26 26 27 28 28 29 31 36 37 42 50 58 89 100 100 100 100 100 100 100 100 100 100 91 93 100 100 100 100 100 100 100 100 98 99 94 84 79 72 62 56 43

GFSGL_500_rhum_036.txt.gz
RH
24 26 28 28 29 30 35 39 47 98 74 65 71 84 76 82 83 86 82 85 95 79 36 24 19 10 10 14 19 37 51 54 39 28 43 43 28 26 25 25 22 21 28
31 32 32 33 34 52 42 43 77 68 70 81 86 80 80 92 95 100 100 100 86 47 24 23 12 10 13 20 30 54 67 68 39 40 39 30 24 25 25 23 28 37 45
35 38 39 43 46 78 51 88 84 73 90 89 83 81 86 98 100 100 93 87 63 27 22 16 10 12 21 28 46 59 48 40 54 36 28 24 23 25 25 33 39 53 65
42 44 49 52 56 53 61 72 78 95 92 92 83 87 100 100 100 100 99 96 44 23 16 11 11 15 28 37 45 42 56 47 34 30 25 23 26 27 37 45 56 73 68
47 50 52 49 58 70 61 75 96 96 85 84 100 100 100 99 100 100 93 62 33 18 12 13 18 22 28 40 54 63 53 35 31 27 25 26 28 38 51 65 69 67 51
52 51 52 68 70 56 89 81 100 96 92 100 100 96 98 100 100 94 56 31 16 11 13 17 24 28 37 55 51 48 37 33 29 27 27 27 36 52 75 79 63 66 17
51 69 70 56 65 83 89 100 86 100 100 100 100 100 100 100 99 62 30 16 13 14 16 24 29 44 51 58 52 38 31 28 27 27 30 31 55 80 76 68 76 40 18
67 59 58 84 100 96 91 91 100 100 100 100 100 100 100 95 88 44 18 14 14 17 22 30 35 46 53 58 44 33 30 26 27 30 32 37 70 86 83 66 79 22 29
47 70 93 99 100 94 100 100 100 100 100 100 100 100 97 91 64 22 13 13 19 20 30 35 39 53 64 54 38 32 29 25 27 37 34 47 87 89 79 71 85 22 43
76 85 86 83 100 100 100 100 100 100 100 100 100 99 92 74 20 13 15 16 20 28 35 40 45 69 72 51 39 35 29 25 27 41 33 60 95 95 84 70 96 35 33
85 99 100 100 96 100 100 100 100 100 100 100 98 94 48 21 13 16 21 21 28 35 44 48 47 80 74 51 43 41 32 25 25 37 34 57 99 96 93 61 99 84 30
96 100 100 100 100 100 100 100 100 100 100 97 87 61 16 14 14 20 26 27 32 40 50 55 73 83 77 57 51 47 35 26 24 30 35 44 96 96 97 65 88 100 90
100 100 100 100 100 100 100 100 100 100 98 76 33 14 14 17 20 25 29 38 41 44 53 63 90 89 83 67 63 57 43 30 24 28 34 35 78 99 97 91 60 100 100
100 100 100 100 100 100 100 100 100 92 58 25 13 14 19 22 26 28 28 41 48 52 57 83 85 89 94 79 75 70 57 41 28 24 30 34 46 99 99 100 67 72 100
100 100 100 100 100 100 99 81 43 18 14 15 22 22 25 28 34 36 37 44 52 64 74 92 84 88 95 91 87 81 71 57 40 25 25 31 33 70 100 100 98 62 96
100 100 100 100 97 75 38 15 12 14 19 24 27 29 31 37 39 42 55 62 59 63 81 94 91 95 99 98 100 95 86 72 54 36 24 25 30 33 84 100 100 88 66
100 100 82 43 19 15 13 12 12 18 26 29 33 36 42 44 43 51 65 70 73 71 84 92 100 100 100 100 100 100 96 87 69 50 36 25 25 29 33 90 100 100 88
31 22 22 20 18 14 13 15 20 23 25 32 37 40 46 47 47 62 77 78 85 88 92 94 99 100 100 100 100 100 100 93 84 70 54 38 27 25 28 31 87 100 100
24 24 24 24 18 14 17 23 30 32 36 39 35 42 45 47 50 73 89 93 94 93 90 93 99 100 100 100 100 100 100 96 88 80 67 56 41 31 25 26 30 80 100
27 31 30 26 16 17 23 27 33 38 39 44 43 43 46 46 48 77 99 100 100 98 94 90 92 96 100 100 100 100 100 100 94 85 76 70 58 46 33 26 24 28 61
39 38 30 21 18 26 29 31 36 41 41 46 48 50 48 47 47 70 100 100 100 100 100 100 100 100 100 100 100 100 100 100 100 100 100 95 77 61 47 36 27 23 26
36 28 20 16 21 27 30 32 32 34 36 42 48 53 49 48 48 77 100 100 100 100 100 100 100 100 100 100 100 100 100 100 99 96 92 91 80 72 63 48 39 31 22
23 15 14 16 22 28 30 30 31 31 30 31 40 50 48 48 48 79 100 100 100 100 100 100 100 100 99 100 100 100 100 100 100 99 97 88 85 79 73 60 50 41 32
14 16 22 25 28 30 31 29 27 30 31 30 31 41 45 49 51 79 100 100 100 100 100 100 100 100 100 100 100 100 100 99 99 100 98 97 84 82 79 69 58 55 48
19 21 17 17 18 20 23 24 25 28 31 31 31 33 39 51 63 97 100 100 100 100 100 100 100 100 100 100 99 100 100 100 100 100 98 96 100 89 85 79 72 63 62
20 15 14 15 17 20 22 24 25 28 31 32 32 34 40 62 84 100 100 100 100 100 100 100 100 100 100 100 100 97 100 100 100 100 100 100 100 100 98 90 75 70 70

GFSGL_500_rhum_039.txt.gz
RH
25 33 36 40 57 81 72 53 50 55 98 100 65 76 86 87 92 78 74 78 91 97 99 100 100 89 54 15 9 10 14 22 22 22 28 32 41 40 30 27 21 18 19
28 35 43 46 58 86 52 51 56 55 100 96 71 72 99 98 100 90 97 100 100 100 100 99 76 34 13 9 10 17 20 28 28 23 41 47 35 30 26 22 21 22 21
45 40 44 50 48 53 51 47 47 64 60 68 84 100 94 88 95 97 99 100 100 100 99 95 87 27 9 11 16 22 24 32 41 40 35 33 30 27 24 23 22 24 29
51 48 51 51 49 41 42 60 66 55 72 84 92 99 95 87 99 100 100 100 98 98 95 65 28 10 10 14 19 24 38 36 39 32 31 29 27 26 24 23 25 36 47
52 48 44 39 40 57 74 70 65 88 88 98 100 93 85 99 100 100 100 100 100 91 80 45 13 11 16 22 24 31 33 39 35 30 28 25 27 29 26 28 35 48 81
43 40 48 62 78 77 61 79 88 99 100 100 100 100 100 100 100 100 100 99 93 69 23 12 11 16 24 26 30 31 38 34 32 29 27 23 26 29 27 41 54 74 64
65 58 63 65 64 65 86 91 98 100 96 88 100 100 100 100 100 100 100 98 88 25 10 12 16 23 29 30 32 41 43 34 30 26 25 22 26 28 35 68 75 69 54
59 56 70 86 94 95 98 100 99 100 100 100 100 100 100 100 100 100 100 89 40 12 14 18 24 31 37 37 45 62 48 38 35 29 24 21 29 30 45 79 78 61 68
69 99 100 100 99 100 100 100 100 100 100 100 100 100 100 100 100 96 78 30 12 14 22 25 31 40 42 42 66 68 52 44 38 29 23 22 30 32 64 86 83 57 80
94 92 94 99 100 100 100 100 100 100 100 100 100 100 100 95 86 56 23 13 14 20 26 30 38 49 48 52 76 72 55 50 41 30 23 23 31 35 76 89 89 61 69
98 100 100 100 100 100 100 100 100 100 100 100 100 99 87 54 22 17 19 22 21 28 34 39 45 54 54 75 83 79 62 58 48 34 24 22 31 35 82 94 92 72 66
98 94 91 94 94 91 100 100 100 100 100 99 75 34 13 15 17 21 24 25 27 34 42 49 52 51 66 84 86 88 73 66 57 44 30 22 29 34 67 99 95 84 63
79 61 44 32 35 74 100 100 100 89 55 25 15 14 15 20 26 27 29 30 36 46 53 58 60 59 85 84 90 92 88 81 73 58 39 24 24 32 43 100 96 94 68
11 9 29 47 50 99 96 45 25 20 21 19 15 16 21 26 35 35 34 35 40 51 65 64 66 74 88 87 95 100 99 97 89 71 53 33 23 28 32 87 100 99 70
4 6 10 24 36 29 25 23 23 26 26 22 16 22 27 31 38 38 37 40 44 58 78 76 72 81 94 96 100 100 100 100 98 87 70 46 29 23 30 42 99 100 90
5 6 10 18 24 23 22 24 31 33 30 19 21 27 35 39 43 37 40 45 46 64 81 85 86 88 98 100 100 100 100 100 100 98 86 66 41 28 24 30 66 100 100
6 10 22 29 29 31 30 31 33 32 25 20 30 35 40 43 50 42 43 48 50 69 83 86 90 95 98 100 100 100 100 100 100 100 95 80 58 40 28 25 29 84 100
8 17 38 39 35 30 30 32 30 24 16 19 32 36 43 44 48 51 49 49 55 81 99 95 92 92 95 98 96 100 100 100 100 100 100 84 67 54 43 29 25 28 83
38 57 53 35 29 32 32 25 17 15 18 22 28 36 39 43 48 54 55 51 54 90 100 100 100 98 98 97 98 100 100 100 100 100 100 97 84 81 62 43 32 25 28
65 59 38 36 39 35 22 16 15 19 22 27 30 35 35 35 41 53 56 54 55 83 100 100 100 100 100 100 100 100 100 100 100 100 100 100 99 97 76 59 44 35 25
58 40 44 44 32 21 15 14 20 23 26 29 32 33 33 33 32 45 55 54 56 90 100 100 100 98 100 100 100 100 100 100 100 98 100 100 92 90 83 70 58 46 36
54 52 40 30 20 14 14 19 19 15 20 26 30 31 29 32 32 35 50 51 54 81 100 100 100 100 98 100 100 100 98 98 97 100 99 98 95 91 86 79 68 55 46
54 36 28 17 14 18 23 19 16 15 17 20 24 26 28 31 33 35 44 50 55 80 100 100 100 100 100 100 100 100 100 99 99 100 96 97 94 97 87 80 79 67 57
38 25 16 16 23 24 17 13 14 17 19 23 27 28 30 32 33 35 40 52 68 100 100 100 100 100 100 100 100 100 100 100 100 100 100 99 91 93 99 93 81 76 71
22 16 20 26 21 15 12 13 14 16 17 19 25 29 32 34 34 35 40 56 83 100 100 100 100 100 100 100 100 100 100 100 100 100 100 100 100 92 90 96 92 90 80
15 22 28 20 15 14 14 13 14 18 21 21 22 28 33 35 36 37 45 72 98 100 100 100 100 100 100 100 100 100 100 100 100 100 100 100 100 100 96 97 96 93 91

GFSGL_500_rhum_042.txt.gz
RH
38 79 96 92 99 90 83 90 85 64 64 61 58 59 70 81 77 78 88 86 90 92 90 88 95 96 100 100 94 76 39 15 11 11 14 17 26 26 29 27 24 23 23
90 76 96 100 100 99 70 82 75 74 50 57 76 82 72 76 99 100 95 96 100 100 100 100 100 100 100 96 89 41 12 10 13 17 21 24 29 29 25 26 26 25 23
78 90 93 96 88 50 37 45 49 57 73 77 63 58 83 84 84 83 94 82 82 100 100 100 100 100 97 79 33 12 12 16 21 22 22 32 29 27 25 23 21 23 25
91 98 98 93 56 48 55 66 67 65 64 67 77 90 94 93 100 100 100 100 97 99 99 100 100 94 71 29 12 12 18 22 26 28 37 33 28 28 25 21 22 26 26
84 96 100 100 83 72 79 63 71 84 83 84 88 93 98 98 99 100 100 99 99 100 100 100 93 65 27 12 14 20 25 29 30 43 41 34 30 26 23 20 23 24 36
78 91 100 78 80 76 56 86 82 82 93 99 99 94 99 100 100 100 100 100 100 100 98 84 54 25 14 18 24 29 36 34 44 50 39 35 30 25 20 22 24 28 68
99 74 66 60 60 77 91 91 99 96 86 85 95 100 100 100 100 100 100 100 100 96 68 27 16 15 21 28 32 41 45 46 52 45 41 36 30 24 19 26 28 42 66
60 60 75 87 99 100 99 92 100 100 100 100 100 100 100 100 100 100 100 90 58 27 15 15 19 24 29 31 41 50 54 71 67 50 47 39 30 22 20 25 32 66 69
75 99 100 100 100 96 100 100 100 100 100 88 60 60 95 100 99 69 28 14 13 14 18 24 25 29 35 40 50 58 80 92 75 58 55 43 31 23 20 26 34 69 76
97 100 100 96 90 86 67 49 38 28 29 24 86 100 90 38 21 21 18 15 16 20 28 28 31 37 43 50 56 65 98 96 87 72 64 48 35 24 20 24 32 76 80
100 100 98 86 69 21 5 4 4 6 12 26 23 24 22 24 27 26 18 18 23 30 36 34 38 46 54 60 63 84 97 100 97 86 75 58 40 26 22 26 30 75 88
96 82 58 18 5 4 4 4 5 8 13 20 22 22 24 30 32 27 18 24 30 41 44 43 43 53 66 68 70 98 98 100 100 97 87 73 52 33 22 24 29 69 84
67 38 8 4 4 4 5 6 7 11 18 22 22 22 27 33 32 22 20 31 38 45 48 48 48 62 72 73 80 96 95 99 97 100 98 88 69 46 26 25 28 58 89
22 6 4 4 5 6 6 7 10 20 28 26 26 31 32 29 23 21 25 34 41 48 49 52 56 73 80 80 91 98 100 100 100 100 100 96 80 59 38 24 28 40 90
5 4 4 5 6 7 8 14 20 27 31 31 36 37 29 19 20 24 31 35 43 51 48 54 64 77 86 88 92 100 100 100 100 100 100 99 87 72 47 32 25 28 82
4 5 6 7 8 10 15 20 34 36 35 42 44 31 19 16 21 29 36 37 44 49 50 56 68 88 91 95 100 100 100 100 100 100 100 100 94 80 59 44 28 26 47
5 6 8 10 13 19 26 41 39 42 50 44 31 20 17 16 22 31 41 39 43 48 53 57 70 99 100 100 100 100 100 100 100 100 100 100 98 89 71 62 44 27 25
8 9 11 12 15 22 41 58 59 56 41 31 20 15 16 22 26 33 41 40 39 47 56 56 68 100 100 100 100 100 100 100 100 100 100 100 100 99 90 82 64 43 27
11 13 15 19 32 56 67 67 57 39 29 18 15 16 21 22 22 31 36 36 37 40 56 58 65 99 100 100 100 99 100 100 100 100 100 99 100 100 98 88 74 57 40
13 14 16 24 45 65 62 49 37 25 16 16 22 24 18 16 18 28 33 32 36 37 56 58 61 95 100 100 100 100 100 100 100 100 100 99 97 99 91 86 79 67 51
15 17 21 48 56 47 40 33 20 15 22 26 22 17 14 16 18 23 29 30 35 37 52 57 60 97 100 100 100 100 100 100 99 100 98 97 97 98 98 88 81 74 62
16 27 44 45 41 36 25 16 15 24 25 18 14 13 15 18 20 25 29 30 35 36 48 58 64 99 100 100 100 100 100 100 100 100 100 99 100 100 95 93 82 78 72
34 42 41 38 27 18 16 16 24 27 18 14 14 15 16 18 21 28 31 32 36 39 50 63 76 100 100 100 100 100 100 100 100 100 100 98 100 100 96 90 93 81 79
38 36 26 18 18 16 20 28 26 19 15 15 14 14 17 20 21 28 32 35 36 42 58 80 95 100 100 100 100 100 100 100 100 100 100 100 100 100 100 97 91 93 87
31 19 19 16 18 24 21 15 16 16 15 13 13 14 15 18 24 24 32 36 37 40 62 92 100 100 100 100 100 100 100 100 100 100 100 100 100 100 100 100 100 90 88
19 19 19 26 20 12 14 14 12 11 12 12 14 16 19 24 27 28 32 39 41 41 54 97 100 100 100 100 100 100 100 100 100 100 100 100 100 100 100 100 99 100 98

GFSGL_500_rhum_045.txt.gz
RH
33 42 62 75 89 98 94 91 90 93 95 91 92 58 58 58 71 81 90 96 100 100 100 100 100 100 99 92 93 100 100 98 87 69 42 18 12 15 16 16 19 20 22
47 50 70 80 84 96 99 96 100 100 100 81 65 70 70 92 100 100 98 100 100 97 98 100 100 96 86 99 100 100 97 87 59 25 14 15 21 21 19 20 27 26 24
63 79 98 95 99 100 99 98 100 99 98 98 79 86 100 100 92 86 85 85 86 88 98 97 96 99 100 100 99 88 63 34 20 17 22 26 26 24 24 29 28 26 24
77 86 79 88 85 86 90 100 96 95 92 80 94 96 93 87 98 99 100 100 100 100 92 93 100 100 100 75 48 30 22 20 23 25 32 33 32 33 35 30 30 25 22
27 97 81 77 82 90 95 100 83 84 91 93 92 84 90 93 99 95 86 84 89 56 77 100 85 44 17 16 19 21 22 24 29 34 41 39 44 50 40 35 28 23 20
39 45 80 91 78 79 64 74 87 90 90 89 78 98 100 100 100 96 45 59 18 58 56 19 18 14 13 16 24 27 28 30 34 43 50 46 64 48 43 33 26 21 21
40 46 49 43 55 65 79 83 89 81 92 97 96 88 11 10 11 20 15 13 22 21 18 19 22 16 18 26 30 30 34 37 43 50 54 63 64 55 46 33 25 20 20
41 37 40 56 65 78 89 92 95 100 98 100 100 14 4 8 7 9 16 19 18 20 25 26 20 19 26 37 38 37 43 50 54 56 64 77 70 64 51 35 24 21 23
32 38 52 70 82 91 92 89 100 100 100 35 5 5 6 6 10 14 20 20 28 29 27 23 18 24 37 42 41 44 54 60 60 64 82 88 82 74 54 37 24 22 27
34 44 73 89 100 100 87 56 13 6 5 5 6 6 7 9 16 25 26 26 33 32 23 20 22 29 40 46 46 50 68 69 68 89 91 92 91 79 59 42 27 22 27
59 86 93 90 85 62 26 8 4 5 5 5 6 8 11 18 26 29 29 37 40 29 19 20 26 33 46 48 51 59 75 76 80 97 96 99 97 87 72 51 34 21 26
89 90 85 76 49 18 6 5 5 4 6 8 9 11 19 38 37 36 44 46 36 22 18 22 31 39 50 51 54 68 82 78 94 97 100 100 96 89 83 63 42 25 23
91 88 75 48 18 8 5 5 6 7 9 10 14 20 36 55 51 53 52 39 27 18 19 29 35 43 56 52 53 76 84 83 99 100 100 100 91 92 92 76 51 32 22
89 76 53 24 9 6 6 6 8 10 13 16 23 35 54 62 64 56 39 28 18 18 24 38 42 48 61 55 54 84 92 90 100 100 100 98 95 96 96 83 59 40 25
80 55 29 14 8 7 7 9 11 14 20 24 33 51 71 66 55 38 26 18 18 22 27 41 45 54 64 58 57 88 97 96 100 99 100 100 99 100 99 90 68 49 32
59 30 12 8 8 8 9 10 15 19 22 32 58 72 60 48 36 23 18 18 20 25 28 43 46 54 62 61 66 96 100 97 99 97 100 100 100 100 100 93 82 69 45
28 11 8 8 9 10 11 13 13 13 20 37 48 45 40 30 18 17 25 25 23 24 29 39 46 51 62 63 78 100 100 98 100 100 100 100 100 99 100 95 93 88 57
10 9 8 9 10 12 13 14 17 22 26 29 32 30 20 16 17 25 23 19 19 19 28 36 41 48 63 65 79 100 100 100 100 100 100 98 100 100 99 96 97 95 69
9 9 10 11 12 14 15 19 24 26 26 23 17 16 16 18 26 22 15 14 16 18 27 34 37 44 61 65 76 100 100 100 100 100 99 97 99 100 100 98 94 85 77
10 11 11 13 15 16 20 22 23 19 16 16 16 17 22 29 26 16 14 15 16 21 26 31 35 43 60 66 76 100 100 100 100 100 96 98 100 100 100 98 95 85 78
11 13 14 15 17 22 25 22 15 14 14 19 23 24 24 22 18 15 15 17 21 24 29 31 35 44 61 68 79 100 100 100 100 100 99 100 100 100 100 96 92 91 80
14 15 16 21 25 27 20 16 16 23 23 14 12 14 18 20 18 17 17 18 20 24 30 33 39 50 62 72 95 100 100 100 100 100 100 100 100 100 100 99 97 91 89
16 22 31 32 32 22 18 18 26 19 10 11 11 11 12 14 16 16 16 18 23 25 33 36 40 53 78 98 100 100 100 100 100 100 100 100 100 100 100 100 100 98 94
33 45 38 36 25 21 20 22 20 10 10 8 9 12 13 14 16 17 19 22 26 28 34 40 43 60 89 100 100 100 100 100 100 100 100 100 100 100 100 100 100 100 100
54 48 44 31 23 26 21 21 13 9 8 10 13 16 17 16 15 20 28 32 32 36 37 46 45 61 98 100 100 100 100 100 100 100 100 100 100 100 100 100 100 100 100
54 50 33 25 30 28 20 18 12 10 10 14 15 17 20 14 11 17 29 47 51 57 56 54 56 57 100 100 100 100 100 100 100 100 100 100 100 100 100 100 100 99 100

GFSGL_500_rhum_048.txt.gz
RH
48 59 69 75 79 92 96 99 100 100 95 100 98 99 100 100 98 93 83 86 93 94 91 88 98 100 85 10 17 10 23 36 32 25 48 76 56 28 20 17 20 24 23
69 72 75 83 92 94 80 96 100 95 100 100 100 100 100 100 82 92 90 84 73 81 87 91 80 41 8 8 8 13 15 16 14 13 17 22 25 24 23 26 32 30 26
76 86 89 84 87 84 67 66 66 82 100 98 71 99 86 92 95 100 94 100 98 100 13 6 6 6 7 10 13 16 17 16 14 16 20 25 26 30 34 38 38 37 36
69 68 62 33 81 54 60 66 71 76 84 72 95 85 94 99 85 91 98 100 99 78 5 6 6 8 10 17 23 23 18 15 18 26 30 31 33 39 42 40 50 46 41
16 17 26 60 53 50 50 48 53 54 75 76 86 100 96 100 100 100 100 100 84 5 6 7 9 13 18 27 27 20 16 19 26 31 32 35 44 49 51 59 52 49 45
6 8 11 17 30 35 34 34 37 52 67 88 96 91 89 100 100 100 100 84 5 7 8 10 14 22 31 36 27 19 19 25 34 38 41 44 56 56 73 73 57 52 43
6 8 12 21 31 36 35 33 42 73 86 98 98 90 78 61 13 8 6 6 8 9 12 20 26 31 43 38 24 18 24 34 44 43 46 58 62 70 85 76 65 58 44
10 15 24 32 37 38 43 61 85 92 100 100 100 94 15 5 5 6 8 9 10 14 28 37 38 47 46 32 20 19 31 46 46 46 54 66 67 86 86 80 77 65 45
14 22 32 38 43 53 74 87 95 99 100 79 48 10 5 6 8 8 10 12 19 29 49 56 58 55 41 27 18 24 37 51 48 50 62 71 75 91 89 85 82 68 47
23 32 39 46 53 72 92 96 92 84 63 25 7 6 6 7 9 11 15 21 28 42 69 73 66 46 30 20 19 33 46 53 54 55 72 73 87 95 89 87 79 71 53
38 42 46 54 76 95 96 90 76 48 19 9 7 7 8 9 12 18 26 33 46 62 79 69 49 33 22 20 25 42 52 57 56 64 82 78 96 94 89 93 84 76 61
43 46 56 73 88 91 87 79 54 25 13 8 8 8 9 12 19 24 29 36 57 72 61 48 34 22 20 22 34 48 53 61 59 74 90 89 100 98 94 100 90 84 68
46 56 73 85 86 85 82 61 32 12 10 9 9 10 11 13 16 25 34 50 58 49 43 31 19 21 24 29 44 51 58 62 63 87 96 94 100 100 100 100 95 90 80
56 71 81 85 87 88 74 42 20 13 10 10 10 12 13 12 15 23 37 45 42 37 27 17 20 26 29 37 49 52 56 61 70 98 100 99 100 100 100 100 98 97 96
75 82 83 86 88 76 44 21 12 9 11 12 13 13 13 13 18 24 26 25 22 19 18 18 26 25 26 39 52 54 56 64 78 100 100 100 100 100 100 96 97 100 97
82 83 87 89 82 54 28 13 10 11 12 14 14 16 17 23 22 17 15 16 18 18 19 25 24 20 23 30 47 54 57 67 78 100 100 100 100 100 100 98 97 100 100
84 88 92 86 54 24 12 10 10 12 13 13 17 21 22 14 13 15 18 20 22 26 27 21 17 18 23 28 42 50 56 69 76 100 100 100 100 100 100 100 100 100 98
93 95 87 49 20 12 12 12 12 12 9 10 16 16 13 14 20 22 20 21 25 27 21 16 16 19 25 31 39 48 57 70 82 100 100 100 100 100 100 100 100 100 99
94 80 40 15 13 13 13 14 12 15 19 17 14 12 15 21 13 9 10 15 20 21 17 16 18 21 27 33 38 49 59 73 96 100 100 100 100 100 100 98 97 100 100
76 34 15 13 13 14 14 15 18 24 22 17 14 14 18 12 8 8 10 12 16 19 19 18 19 23 31 35 39 53 63 80 100 100 100 100 100 100 100 97 96 96 100
32 17 14 14 15 15 18 22 25 25 20 16 17 17 18 8 6 7 12 14 14 18 19 20 20 24 33 36 47 60 74 92 100 100 100 100 100 100 100 98 95 96 98
32 16 16 16 17 22 26 27 26 21 18 20 17 17 14 7 7 10 13 18 18 17 19 23 23 25 35 43 57 68 87 100 100 100 100 100 100 100 100 100 97 96 99
16 17 17 20 29 33 31 28 20 21 21 15 13 15 12 8 9 12 13 18 18 22 24 26 28 29 37 57 76 92 100 100 100 100 100 100 100 100 100 100 100 100 100
17 17 26 37 36 34 28 21 24 19 9 9 14 15 11 10 12 13 15 20 15 20 32 34 40 46 44 51 81 100 100 100 100 100 100 100 100 100 100 100 100 100 100
20 33 43 39 38 31 23 26 21 9 8 14 18 15 14 14 14 16 19 24 18 21 42 66 77 77 78 57 73 100 100 100 100 100 100 100 100 100 100 100 100 100 100
42 47 41 43 32 25 28 25 18 8 10 18 19 17 17 16 16 20 26 31 22 24 45 90 100 95 99 91 80 100 100 100 100 100 100 100 100 100 100 100 100 100 100

GFSGL_500_rhum_051.txt.gz
RH
25 47 81 82 87 92 98 92 98 97 94 81 90 100 100 100 100 100 100 86 88 86 91 97 99 100 100 91 40 6 7 8 10 16 24 23 17 16 20 24 26 27 28
54 74 70 85 94 91 90 92 99 100 91 100 96 96 100 100 99 95 100 84 88 95 90 100 97 73 94 16 6 8 10 13 20 30 32 22 17 22 28 32 32 36 39
70 83 87 88 88 78 84 78 71 75 62 85 96 89 100 100 82 78 87 99 93 84 92 72 30 6 6 8 9 11 14 24 36 41 29 18 20 30 36 37 46 48 52
54 63 67 57 49 57 48 73 50 42 43 60 67 50 66 88 86 92 93 86 90 100 45 6 5 7 8 10 12 16 29 42 51 38 27 17 27 38 41 43 52 64 65
26 18 11 8 7 11 16 18 24 32 37 37 39 47 79 90 91 88 84 99 100 63 7 6 7 9 10 13 20 34 55 60 52 35 21 20 34 44 44 56 57 65 98
8 7 7 8 9 9 12 21 31 36 38 44 60 81 89 87 100 100 100 100 50 8 6 8 9 11 15 23 40 60 73 67 44 29 19 27 41 48 53 64 64 79 94
8 8 9 10 10 12 18 30 36 42 48 56 78 93 100 100 98 98 84 27 10 7 8 9 11 15 26 46 64 79 72 52 33 22 21 38 46 52 66 70 74 92 89
10 11 12 12 14 18 27 32 40 45 54 73 88 93 94 83 54 27 16 10 8 8 10 11 14 24 46 65 75 72 57 39 24 20 31 47 52 57 73 72 86 91 91
13 14 15 17 20 25 31 39 43 51 65 81 90 89 81 52 30 16 10 9 9 10 12 14 24 37 53 60 62 56 44 25 21 23 38 52 54 62 79 76 89 88 87
17 19 20 21 26 33 40 44 51 64 80 80 81 82 69 44 18 10 9 9 10 11 12 19 31 41 48 53 51 45 26 22 22 30 42 57 58 70 86 83 93 90 85
24 25 25 30 36 42 45 55 72 78 78 80 83 80 50 24 14 10 11 11 12 12 14 21 26 34 38 41 36 24 21 24 27 40 48 63 60 75 90 93 98 92 87
31 32 35 40 45 52 65 76 77 76 80 84 82 65 34 17 11 12 12 13 14 16 19 22 24 24 23 22 22 21 24 28 30 49 54 69 63 86 98 98 98 94 91
38 38 42 51 62 74 76 76 79 80 80 78 66 48 27 13 11 11 12 12 16 18 16 16 15 17 20 22 22 22 26 32 36 53 57 72 66 99 100 100 100 98 98
44 48 57 70 76 74 73 71 69 70 68 59 40 24 16 12 12 11 9 10 11 10 12 14 22 23 24 24 24 25 25 30 38 52 60 70 77 100 100 100 100 100 100
53 60 72 78 77 75 74 74 73 70 58 36 22 15 14 13 10 8 9 9 9 11 15 19 18 22 26 28 27 23 22 23 31 49 59 71 90 100 100 100 100 100 100
65 77 83 80 74 76 81 80 75 55 33 20 15 14 12 11 10 10 10 11 13 16 14 7 11 22 28 27 23 19 24 24 31 48 60 75 100 100 100 100 100 100 100
86 91 86 78 81 86 80 79 74 50 23 15 14 12 12 12 13 11 12 13 15 15 6 7 9 17 23 21 18 18 25 28 34 47 65 82 100 100 100 100 100 100 100
88 86 84 87 91 87 84 79 70 38 18 15 12 11 12 11 11 14 15 15 16 11 6 9 11 14 20 19 18 20 25 30 38 47 71 89 100 100 100 100 100 100 100
90 92 95 97 96 88 86 74 39 21 18 13 12 13 12 12 14 12 8 11 14 8 8 12 15 16 19 19 20 22 28 34 40 54 79 99 100 100 100 100 100 100 100
99 100 100 99 96 92 71 37 23 18 14 14 14 11 11 14 11 6 7 14 11 10 10 12 18 18 20 21 22 25 32 37 47 69 87 100 100 100 100 100 100 100 100
100 100 100 100 94 71 43 28 18 17 18 16 14 15 17 15 9 6 12 13 10 12 12 14 18 22 22 23 25 31 41 48 63 84 95 100 100 100 100 100 100 100 100
100 100 100 95 79 52 31 18 20 21 19 16 18 22 19 16 7 10 14 12 12 13 13 17 19 27 29 26 28 34 48 65 87 100 100 100 100 100 100 100 100 100 100
100 99 94 82 59 34 22 23 24 22 20 22 25 23 19 13 8 13 14 14 15 15 16 20 21 28 40 49 39 46 61 89 100 100 100 100 100 100 100 100 100 100 100
97 95 85 65 36 26 28 29 26 23 24 26 26 22 16 11 10 15 15 15 16 18 20 25 24 26 55 80 66 56 66 97 100 100 100 100 100 100 100 100 100 100 100
96 87 64 34 30 34 36 31 25 26 28 27 24 17 14 11 13 17 17 18 19 22 26 31 27 33 67 86 100 87 68 87 100 100 100 100 100 100 100 100 100 100 96
80 58 35 35 40 40 34 26 28 31 32 30 20 14 14 13 18 19 19 20 21 26 30 37 30 34 82 100 100 100 94 98 100 100 100 100 100 100 100 100 100 100 100

GFSGL_500_rhum_054.txt.gz
RH
28 28 27 29 65 80 90 95 98 96 99 98 99 100 98 90 67 88 96 99 66 98 100 91 100 100 100 100 100 60 8 7 8 9 11 13 14 32 47 42 26 15 19
32 30 28 46 59 77 91 96 85 87 97 84 81 85 66 81 68 77 68 71 54 94 89 100 100 100 100 100 84 11 8 8 10 10 16 22 34 48 54 37 21 17 27
47 33 47 57 54 53 59 66 46 32 18 43 64 94 41 47 56 44 45 63 100 100 98 82 99 100 100 91 12 9 8 10 11 17 23 33 56 60 44 29 18 25 35
31 40 50 46 35 20 10 8 9 10 16 18 34 36 37 40 40 50 71 100 100 93 97 100 100 96 46 10 9 9 10 12 21 32 35 54 62 50 36 21 21 35 42
32 41 37 31 10 8 8 10 11 15 22 22 30 34 36 46 63 79 85 93 100 100 100 83 47 22 13 9 9 11 13 20 30 37 43 56 53 43 26 20 28 41 49
35 25 11 8 10 11 12 13 15 19 22 28 34 40 47 53 66 83 98 99 95 88 70 44 29 16 10 10 11 13 17 30 34 45 52 54 51 33 21 24 38 48 55
15 10 10 12 13 14 15 17 19 23 29 31 36 41 49 62 80 89 87 84 83 81 63 36 16 12 11 11 13 15 21 28 36 48 54 51 40 24 21 32 48 52 65
11 13 14 16 17 18 21 22 23 24 28 37 43 49 63 76 79 80 82 80 79 70 47 27 14 11 12 14 17 22 24 28 31 34 40 37 26 22 26 40 56 57 78
15 16 18 20 23 26 28 28 28 30 37 46 54 67 72 75 74 74 71 68 64 49 27 15 13 13 14 17 21 22 21 22 25 25 26 25 23 26 38 48 61 65 85
17 18 23 29 32 32 32 34 36 41 50 64 70 72 64 59 61 63 61 54 42 30 23 18 14 13 15 20 16 15 16 20 24 23 26 25 26 34 49 60 64 78 86
17 26 32 35 36 38 40 41 44 54 66 69 70 61 62 64 64 60 54 44 32 29 23 16 11 12 12 11 12 14 20 24 26 26 26 26 34 48 55 67 75 95 96
22 29 33 35 40 45 47 49 56 69 73 70 63 66 62 61 62 61 48 29 19 18 14 10 10 10 10 12 14 16 18 25 27 27 27 31 71 54 59 70 79 98 98
26 31 35 44 51 54 56 62 69 75 73 64 67 69 64 62 64 56 41 34 24 15 11 10 9 9 12 13 15 8 14 27 29 28 28 43 100 61 62 74 90 98 99
36 42 50 56 60 62 66 70 74 78 71 67 68 68 68 68 63 50 43 32 21 11 8 8 10 11 12 15 9 6 15 30 30 28 31 53 74 56 66 75 98 99 100
45 53 59 64 67 66 69 73 74 72 72 70 72 74 73 67 58 47 37 27 13 8 8 9 10 6 10 14 8 8 10 24 27 26 32 45 38 51 72 81 100 100 100
58 63 71 74 70 70 73 74 84 85 82 83 82 80 77 66 52 38 24 12 8 8 10 10 7 6 13 10 9 11 15 20 23 21 40 40 34 54 77 93 100 100 100
70 74 77 76 78 78 82 83 83 78 90 95 90 84 71 56 39 23 12 9 9 11 12 8 6 12 11 10 13 16 17 20 20 22 27 32 38 68 88 100 100 100 100
80 81 82 84 83 80 78 77 80 83 91 95 89 75 58 38 22 13 9 10 14 15 13 6 11 12 10 11 15 18 19 21 21 24 28 33 46 79 99 100 100 100 100
89 91 88 83 81 80 80 83 86 93 97 89 75 63 42 22 14 11 14 16 17 16 12 9 12 10 11 13 15 20 21 22 22 25 32 40 69 93 100 100 100 100 100
100 91 87 86 86 88 91 94 99 98 87 76 64 44 20 15 13 16 20 20 18 13 10 11 12 12 13 14 18 23 24 24 26 33 40 57 90 100 100 100 100 100 100
94 94 92 93 97 100 100 100 97 86 78 67 45 21 17 14 17 23 22 20 13 11 9 12 13 14 15 17 22 26 31 32 35 45 54 85 100 100 100 100 100 100 100
96 99 100 100 100 100 100 94 86 80 68 44 23 20 17 19 25 27 26 21 12 11 11 13 14 16 18 22 26 34 51 53 49 54 85 100 100 100 100 100 100 100 100
100 100 100 100 100 98 92 89 83 69 41 26 25 20 21 25 30 30 31 18 13 12 14 16 17 18 21 28 32 74 82 66 72 86 100 100 100 100 100 100 100 100 100
100 100 100 100 96 94 91 85 66 35 30 33 26 24 23 28 34 35 29 16 14 15 17 18 20 21 27 31 31 75 99 75 90 100 100 100 100 100 100 100 100 100 100
100 100 100 97 97 96 86 59 36 38 44 36 28 25 26 36 38 35 23 17 16 18 20 21 22 28 30 34 29 89 100 92 81 99 100 100 100 100 100 100 100 100 100
100 100 97 99 98 85 52 43 50 52 46 32 27 28 38 43 39 29 21 19 19 21 23 24 27 32 34 40 34 87 100 100 100 94 100 100 100 100 100 100 100 100 100

GFSGL_500_rhum_057.txt.gz
RH
32 32 27 49 41 29 33 43 53 61 71 78 78 76 86 83 69 91 100 77 93 74 37 38 45 66 100 100 99 92 100 100 88 49 32 20 12 11 12 13 17 18 17
24 25 36 44 52 53 44 51 49 42 38 22 37 81 15 21 21 24 30 85 66 34 38 53 73 95 99 100 100 100 95 51 40 38 26 12 11 14 16 18 20 25 28
34 41 68 72 64 33 40 51 50 29 14 8 9 12 11 13 15 20 27 32 36 44 57 69 90 100 100 100 95 77 60 48 33 21 13 12 14 19 22 26 25 27 32
88 89 76 52 41 44 46 49 28 10 9 10 12 14 16 19 24 30 30 36 42 50 65 82 92 90 86 88 79 64 47 28 16 14 14 15 19 22 29 34 33 37 34
45 49 44 50 64 63 54 19 11 11 13 15 18 19 22 25 30 35 39 44 51 65 78 80 77 77 74 69 56 35 19 15 14 16 22 27 27 26 26 27 29 32 28
72 83 68 70 50 33 10 11 13 16 18 20 23 26 28 30 34 40 43 55 72 74 67 65 58 56 53 46 39 32 24 15 15 20 23 25 24 28 28 29 30 28 24
50 46 37 26 12 11 13 16 19 21 25 29 32 33 35 37 42 47 60 73 68 63 56 53 53 52 46 39 32 27 20 14 14 15 12 13 18 24 26 27 29 28 26
42 36 18 12 14 15 18 21 26 31 35 36 38 40 42 44 55 70 75 67 61 56 51 52 53 49 43 36 30 23 13 13 12 13 14 16 17 21 27 28 28 27 33
35 16 14 15 17 18 22 27 33 36 36 41 46 48 52 62 64 72 70 63 60 56 55 57 56 50 42 32 19 14 10 8 11 15 17 17 17 22 28 29 29 30 48
15 15 17 18 18 21 25 30 34 36 42 50 53 56 59 68 68 74 69 66 59 57 60 64 60 49 38 27 14 9 8 9 12 15 16 13 16 26 29 31 39 64 58
17 18 19 18 20 24 29 32 33 39 49 57 61 63 68 74 79 74 71 62 57 59 67 68 58 46 33 21 9 7 8 10 8 11 13 10 22 29 31 49 90 81 67
18 18 20 22 25 28 31 37 42 49 60 66 66 70 74 80 75 71 69 71 76 74 73 64 51 37 22 10 7 8 10 8 5 14 8 14 44 60 31 36 69 95 78
19 19 21 28 33 37 44 52 59 69 71 69 68 69 73 72 66 64 68 72 73 75 67 54 40 25 10 7 8 10 7 5 11 12 8 26 64 51 32 58 98 99 69
20 26 37 41 46 57 60 65 71 74 71 69 68 66 64 63 62 65 70 74 76 68 56 46 28 12 7 8 10 10 6 11 11 10 14 50 82 46 40 89 86 84 72
37 42 50 62 68 70 73 76 75 76 72 67 63 64 68 70 72 75 78 78 68 58 50 32 14 8 9 13 13 9 10 12 9 12 16 23 40 37 55 64 55 62 78
56 70 76 78 78 76 75 75 76 73 70 68 69 73 76 76 79 80 81 70 62 49 29 14 9 11 14 13 11 10 11 10 11 15 22 30 52 33 47 51 50 71 98
82 83 82 74 74 72 73 75 75 79 79 77 81 79 82 81 84 82 72 66 50 26 13 10 13 17 18 11 10 11 12 13 14 18 22 26 31 33 38 42 52 89 100
79 74 71 72 68 68 76 83 84 80 75 76 77 85 90 89 81 74 71 51 25 14 12 16 21 22 19 10 10 12 13 15 17 22 24 26 25 32 35 43 72 100 100
86 87 86 76 77 81 84 84 87 92 94 94 96 93 87 80 74 75 53 26 15 13 16 23 27 26 18 11 11 13 14 16 20 26 34 28 28 34 44 69 99 100 100
90 100 96 91 99 99 94 96 98 100 100 100 98 92 84 79 80 57 25 17 15 18 20 29 32 28 16 12 14 15 16 18 26 33 40 34 36 44 66 98 100 100 100
100 99 100 100 100 100 100 100 100 100 100 100 96 89 86 83 56 25 20 17 20 22 25 34 35 24 15 14 17 18 18 24 30 37 48 48 56 70 92 100 100 100 100
100 100 100 100 100 100 100 100 100 100 99 98 94 91 84 45 23 23 21 23 23 25 35 38 33 20 16 17 19 20 23 29 33 49 89 91 90 100 100 100 100 100 100
100 100 100 100 100 100 100 100 100 100 99 97 95 82 36 24 23 22 26 26 27 35 43 40 28 20 18 20 21 23 29 35 53 100 100 100 97 100 100 100 100 100 100
100 100 100 100 100 100 100 100 100 99 99 97 72 29 25 24 25 27 28 29 36 46 45 37 26 21 20 22 23 29 33 37 66 100 100 100 100 100 100 100 100 100 100
100 100 100 100 100 100 100 100 100 100 84 44 30 28 26 26 29 30 34 41 53 52 41 33 28 22 23 24 28 33 34 38 80 100 100 100 100 100 100 100 100 100 100
100 100 100 100 100 100 100 99 80 39 26 29 28 28 29 34 39 46 52 61 60 46 38 36 27 24 27 32 36 34 39 40 81 100 100 100 100 100 100 100 100 100 100

GFSGL_500_rhum_060.txt.gz
RH
22 23 32 28 32 91 71 47 66 64 47 43 43 39 20 11 9 67 93 39 12 15 17 21 26 34 40 54 64 72 73 79 69 53 47 44 42 38 29 22 18 16 14
25 39 89 83 64 97 75 67 65 53 37 38 44 26 10 9 10 12 18 14 18 20 25 31 37 42 48 56 69 69 68 52 45 39 38 38 38 33 25 20 17 14 12
79 94 78 91 87 85 76 79 52 41 42 50 38 12 10 11 14 16 19 22 26 28 32 34 40 48 61 71 65 57 48 44 45 42 38 37 36 30 21 15 14 12 10
84 87 84 74 57 50 53 55 66 64 58 41 12 12 14 16 20 25 28 31 33 36 39 44 51 66 72 65 56 51 49 49 52 49 43 37 32 21 15 15 14 16 18
44 40 47 47 48 56 57 62 70 52 34 12 14 16 19 24 29 30 30 36 42 44 47 55 69 76 68 63 56 53 58 60 58 50 39 27 19 12 10 13 16 20 20
25 53 42 74 92 75 69 43 35 14 14 16 17 22 29 31 30 31 37 43 47 51 56 72 80 75 71 65 60 60 63 63 57 48 37 24 13 8 11 16 19 21 34
55 60 71 68 49 42 37 20 13 16 17 19 26 31 31 26 27 36 46 52 57 64 71 81 83 78 73 65 64 63 62 61 51 36 25 14 8 9 13 16 20 21 38
49 39 19 28 40 35 16 15 17 17 19 24 25 24 26 28 38 51 58 61 64 66 74 84 84 75 71 67 58 58 58 52 44 32 16 8 8 11 13 15 18 20 31
15 21 28 40 37 17 16 18 18 19 21 23 26 29 32 42 55 70 71 66 60 62 67 72 71 66 61 66 64 61 50 46 39 19 7 9 11 10 8 13 26 40 38
17 29 40 37 17 17 19 20 20 21 24 29 35 45 52 53 60 66 64 57 52 57 64 62 60 61 64 67 64 54 48 42 22 7 8 10 10 6 10 14 69 63 52
29 38 35 17 18 20 21 22 21 28 33 41 52 58 59 62 61 62 59 48 47 52 57 62 67 67 64 61 56 53 45 26 8 7 10 11 7 9 13 23 67 64 57
40 27 18 20 20 21 21 22 29 37 48 66 71 72 69 65 58 61 57 54 56 61 65 65 64 64 61 57 56 48 22 8 8 10 11 10 11 12 12 24 81 96 96
18 19 20 20 21 21 25 32 44 65 73 74 68 66 65 64 63 66 61 61 66 68 67 67 68 65 57 56 48 19 9 9 12 14 10 10 11 10 14 43 87 88 63
19 19 20 23 24 28 37 56 72 73 67 58 57 57 64 62 66 66 67 73 73 74 74 76 70 60 59 52 20 9 10 14 17 14 9 10 10 12 21 56 100 73 82
21 24 27 28 33 38 66 80 74 64 61 62 60 60 67 70 66 73 82 82 80 81 80 75 63 58 55 22 10 11 15 20 20 12 10 12 13 18 26 32 82 92 49
26 30 38 43 49 62 90 82 78 81 75 70 67 67 78 79 75 82 89 94 88 85 79 70 63 56 23 10 12 15 22 26 20 12 12 14 26 38 37 45 46 62 46
82 86 73 67 92 99 99 91 98 95 88 85 90 88 87 86 84 90 96 97 90 82 76 71 56 21 11 13 17 21 29 29 17 13 15 15 22 33 51 72 57 40 50
100 100 100 100 100 100 100 99 96 90 87 91 94 95 98 100 98 100 98 92 90 84 77 52 18 12 14 18 21 31 36 28 15 16 18 19 24 31 36 40 31 34 44
97 100 100 100 100 100 100 100 99 96 98 98 92 92 97 99 100 100 94 90 88 80 49 16 13 15 18 21 27 40 39 24 15 18 21 24 33 52 64 42 38 45 65
100 100 87 99 100 100 100 100 100 100 100 100 100 100 100 99 100 98 94 92 81 38 15 14 16 20 24 27 39 45 36 20 17 20 20 25 35 57 75 61 64 74 98
100 99 99 100 100 100 100 100 100 100 100 100 100 100 100 100 98 96 93 75 27 14 16 18 22 28 33 40 48 45 29 20 20 21 24 30 44 74 96 100 93 100 100
100 100 100 100 100 100 100 100 100 100 100 100 100 100 100 100 97 91 58 18 15 18 21 24 30 36 44 53 51 37 28 21 22 24 29 35 43 82 100 100 100 100 100
100 100 100 100 100 100 100 100 100 100 100 100 100 100 100 96 72 25 16 17 20 24 28 33 33 37 50 53 42 35 25 24 25 30 34 39 59 100 100 100 100 100 100
100 100 100 100 100 100 100 100 100 100 100 100 100 98 77 27 15 16 18 22 26 29 29 25 25 32 40 42 42 33 24 27 31 35 39 51 96 100 100 100 100 100 100
100 100 100 100 100 100 100 100 100 100 100 97 73 29 14 14 16 20 23 25 25 22 19 20 24 34 43 48 40 28 30 33 37 36 42 65 100 100 100 100 100 100 100
100 100 100 100 100 100 100 100 99 89 60 25 13 14 15 18 21 22 20 17 17 18 19 23 33 44 54 47 32 34 38 42 39 35 43 66 100 100 100 100 100 100 100